Time,TemperatureF,DewpointF,PressureIn,WindDirection,WindDirectionDegrees,WindSpeedMPH,WindSpeedGustMPH,Humidity,HourlyPrecipIn,Conditions,Clouds,dailyrainin,SoftwareType,DateUTC
2013-03-26 00:01:00,32.5,22.1,29.85,NNE,22,2.5,2.5,65,0.00,,---,0.00,VWS V14.01,2013-03-26 04:01:00,
2013-03-26 00:06:00,32.5,22.1,29.85,NNE,22,2.5,2.5,65,0.00,,---,0.00,VWS V14.01,2013-03-26 04:06:00,
2013-03-26 00:12:00,32.5,22.1,29.85,NNE,22,2.5,2.5,65,0.00,,---,0.00,VWS V14.01,2013-03-26 04:12:00,
2013-03-26 00:17:00,32.5,21.7,29.88,NNE,22,2.5,2.5,64,0.00,,---,0.00,VWS V14.01,2013-03-26 04:17:00,
2013-03-26 00:22:00,32.5,21.7,29.88,NNE,22,2.5,2.5,64,0.00,,---,0.00,VWS V14.01,2013-03-26 04:22:00,
2013-03-26 00:27:00,32.4,21.6,29.88,NNE,22,2.5,2.5,64,0.00,,---,0.00,VWS V14.01,2013-03-26 04:27:00,
2013-03-26 00:32:00,32.4,21.6,29.88,NNE,22,2.5,2.5,64,0.00,,---,0.00,VWS V14.01,2013-03-26 04:32:00,
2013-03-26 00:36:00,32.4,21.6,29.88,NNE,22,2.5,2.5,64,0.00,,---,0.00,VWS V14.01,2013-03-26 04:36:00,
2013-03-26 00:42:00,32.4,21.6,29.88,NNE,22,2.5,2.5,64,0.00,,---,0.00,VWS V14.01,2013-03-26 04:42:00,
2013-03-26 00:47:00,32.4,21.9,29.88,NNE,22,2.5,2.5,65,0.00,,---,0.00,VWS V14.01,2013-03-26 04:47:00,
2013-03-26 00:52:00,32.2,21.4,29.88,NNE,22,2.5,2.5,64,0.00,,---,0.00,VWS V14.01,2013-03-26 04:52:00,
2013-03-26 00:57:00,32.2,21.8,29.88,NNE,22,2.5,2.5,65,0.00,,---,0.00,VWS V14.01,2013-03-26 04:57:00,
2013-03-26 01:02:00,32.2,21.4,29.85,NNE,22,2.5,2.5,64,0.00,,---,0.00,VWS V14.01,2013-03-26 05:02:00,
2013-03-26 01:07:00,32.2,21.4,29.85,NNE,22,2.5,2.5,64,0.00,,---,0.00,VWS V14.01,2013-03-26 05:07:00,
2013-03-26 01:12:00,32.2,21.4,29.85,NNE,22,2.5,2.5,64,0.00,,---,0.00,VWS V14.01,2013-03-26 05:12:00,
2013-03-26 01:14:00,32.0,21.2,29.88,NNE,22,2.5,2.5,64,0.00,,---,0.00,VWS V14.01,2013-03-26 05:14:00,
2013-03-26 01:15:00,32.0,21.2,29.88,NNE,22,2.5,2.5,64,0.00,,---,0.00,VWS V14.01,2013-03-26 05:15:00,
2013-03-26 01:17:00,32.2,21.4,29.88,NNE,22,2.5,2.5,64,0.00,,---,0.00,VWS V14.01,2013-03-26 05:17:00,
2013-03-26 01:20:00,32.0,21.2,29.88,NNE,22,2.5,2.5,64,0.00,,---,0.00,VWS V14.01,2013-03-26 05:20:00,
2013-03-26 01:21:00,32.0,21.2,29.88,NNE,22,2.5,2.5,64,0.00,,---,0.00,VWS V14.01,2013-03-26 05:21:00,
2013-03-26 01:22:00,32.2,21.4,29.88,NNE,22,2.5,2.5,64,0.00,,---,0.00,VWS V14.01,2013-03-26 05:22:00,
2013-03-26 01:27:00,32.2,21.4,29.88,NNE,22,2.5,2.5,64,0.00,,---,0.00,VWS V14.01,2013-03-26 05:27:00,
2013-03-26 01:28:00,32.0,21.2,29.88,NNE,22,2.5,2.5,64,0.00,,---,0.00,VWS V14.01,2013-03-26 05:28:00,
2013-03-26 01:29:00,32.0,21.2,29.88,NNE,22,2.5,2.5,64,0.00,,---,0.00,VWS V14.01,2013-03-26 05:29:00,
2013-03-26 01:32:00,32.0,21.2,29.88,NNE,22,2.5,2.5,64,0.00,,---,0.00,VWS V14.01,2013-03-26 05:32:00,
2013-03-26 01:37:00,32.0,21.2,29.88,NNE,22,2.5,2.5,64,0.00,,---,0.00,VWS V14.01,2013-03-26 05:37:00,
2013-03-26 01:42:00,32.0,21.2,29.88,NNE,22,2.5,2.5,64,0.00,,---,0.00,VWS V14.01,2013-03-26 05:42:00,
2013-03-26 01:47:00,32.0,21.2,29.88,NNE,22,2.5,2.5,64,0.00,,---,0.00,VWS V14.01,2013-03-26 05:47:00,
2013-03-26 01:52:00,32.0,21.2,29.88,NNE,22,2.5,2.5,64,0.00,,---,0.00,VWS V14.01,2013-03-26 05:52:00,
2013-03-26 01:57:00,32.0,21.2,29.88,NNE,22,2.5,2.5,64,0.00,,---,0.00,VWS V14.01,2013-03-26 05:57:00,
2013-03-26 02:02:00,32.0,21.2,29.88,NNE,22,2.5,2.5,64,0.00,,---,0.00,VWS V14.01,2013-03-26 06:02:00,
2013-03-26 02:07:00,32.0,21.2,29.88,NNE,22,2.5,2.5,64,0.00,,---,0.00,VWS V14.01,2013-03-26 06:07:00,
2013-03-26 02:12:00,32.0,21.2,29.88,NNE,22,2.5,2.5,64,0.00,,---,0.00,VWS V14.01,2013-03-26 06:12:00,
2013-03-26 02:17:00,32.0,21.2,29.88,NNE,22,2.5,2.5,64,0.00,,---,0.00,VWS V14.01,2013-03-26 06:17:00,
2013-03-26 02:22:00,32.0,21.2,29.88,NNE,22,2.5,2.5,64,0.00,,---,0.00,VWS V14.01,2013-03-26 06:22:00,
2013-03-26 02:27:00,32.0,21.2,29.88,NNE,22,2.5,2.5,64,0.00,,---,0.00,VWS V14.01,2013-03-26 06:27:00,
2013-03-26 02:32:00,32.0,20.9,29.88,NNE,22,2.5,2.5,63,0.00,,---,0.00,VWS V14.01,2013-03-26 06:32:00,
2013-03-26 02:37:00,32.0,20.9,29.88,NNE,22,2.5,2.5,63,0.00,,---,0.00,VWS V14.01,2013-03-26 06:37:00,
2013-03-26 02:42:00,32.0,20.9,29.88,NNE,22,2.5,2.5,63,0.00,,---,0.00,VWS V14.01,2013-03-26 06:42:00,
2013-03-26 02:47:00,32.0,20.9,29.88,NNE,22,2.5,2.5,63,0.00,,---,0.00,VWS V14.01,2013-03-26 06:47:00,
2013-03-26 02:52:00,32.0,20.9,29.88,NNE,22,2.5,2.5,63,0.00,,---,0.00,VWS V14.01,2013-03-26 06:52:00,
2013-03-26 02:55:00,31.6,20.9,29.85,NNE,22,2.5,2.5,64,0.00,,---,0.00,VWS V14.01,2013-03-26 06:55:00,
2013-03-26 02:56:00,31.6,20.9,29.85,NNE,22,2.5,2.5,64,0.00,,---,0.00,VWS V14.01,2013-03-26 06:56:00,
2013-03-26 02:57:00,31.8,21.0,29.88,NNE,22,2.5,2.5,64,0.00,,---,0.00,VWS V14.01,2013-03-26 06:57:00,
2013-03-26 03:02:00,31.8,21.0,29.88,NNE,22,2.5,2.5,64,0.00,,---,0.00,VWS V14.01,2013-03-26 07:02:00,
2013-03-26 03:07:00,31.8,21.0,29.88,NNE,22,2.5,2.5,64,0.00,,---,0.00,VWS V14.01,2013-03-26 07:07:00,
2013-03-26 03:12:00,31.6,20.9,29.88,NNE,22,2.5,2.5,64,0.00,,---,0.00,VWS V14.01,2013-03-26 07:12:00,
2013-03-26 03:17:00,31.8,21.0,29.88,NNE,22,2.5,2.5,64,0.00,,---,0.00,VWS V14.01,2013-03-26 07:17:00,
2013-03-26 03:22:00,31.8,21.0,29.88,NNE,22,2.5,2.5,64,0.00,,---,0.00,VWS V14.01,2013-03-26 07:22:00,
2013-03-26 03:23:00,31.5,21.1,29.85,NNE,22,2.5,2.5,65,0.00,,---,0.00,VWS V14.01,2013-03-26 07:23:00,
2013-03-26 03:24:00,31.5,21.1,29.85,NNE,22,2.5,2.5,65,0.00,,---,0.00,VWS V14.01,2013-03-26 07:24:00,
2013-03-26 03:25:00,31.5,21.1,29.85,NNE,22,2.5,2.5,65,0.00,,---,0.00,VWS V14.01,2013-03-26 07:25:00,
2013-03-26 03:26:00,31.5,21.1,29.85,NNE,22,2.5,2.5,65,0.00,,---,0.00,VWS V14.01,2013-03-26 07:26:00,
2013-03-26 03:27:00,31.8,21.0,29.88,NNE,22,2.5,2.5,64,0.00,,---,0.00,VWS V14.01,2013-03-26 07:27:00,
2013-03-26 03:28:00,31.5,21.1,29.85,NNE,22,2.5,2.5,65,0.00,,---,0.00,VWS V14.01,2013-03-26 07:28:00,
2013-03-26 03:30:00,31.5,21.1,29.85,NNE,22,2.5,2.5,65,0.00,,---,0.00,VWS V14.01,2013-03-26 07:30:00,
2013-03-26 03:31:00,31.5,21.1,29.85,NNE,22,2.5,2.5,65,0.00,,---,0.00,VWS V14.01,2013-03-26 07:31:00,
2013-03-26 03:32:00,31.8,21.0,29.88,NNE,22,2.5,2.5,64,0.00,,---,0.00,VWS V14.01,2013-03-26 07:32:00,
2013-03-26 03:33:00,31.5,21.1,29.85,NNE,22,2.5,2.5,65,0.00,,---,0.00,VWS V14.01,2013-03-26 07:33:00,
2013-03-26 03:34:00,31.5,21.1,29.85,NNE,22,2.5,2.5,65,0.00,,---,0.00,VWS V14.01,2013-03-26 07:34:00,
2013-03-26 03:37:00,31.8,21.0,29.88,NNE,22,2.5,2.5,64,0.00,,---,0.00,VWS V14.01,2013-03-26 07:37:00,
2013-03-26 03:41:00,31.5,21.4,29.88,NNE,22,2.5,2.5,66,0.00,,---,0.00,VWS V14.01,2013-03-26 07:41:00,
2013-03-26 03:42:00,31.8,21.0,29.88,NNE,22,2.5,2.5,64,0.00,,---,0.00,VWS V14.01,2013-03-26 07:42:00,
2013-03-26 03:43:00,31.5,21.4,29.88,NNE,22,2.5,2.5,66,0.00,,---,0.00,VWS V14.01,2013-03-26 07:43:00,
2013-03-26 03:44:00,31.5,21.4,29.88,NNE,22,2.5,2.5,66,0.00,,---,0.00,VWS V14.01,2013-03-26 07:44:00,
2013-03-26 03:46:00,31.5,21.4,29.88,NNE,22,2.5,2.5,66,0.00,,---,0.00,VWS V14.01,2013-03-26 07:46:00,
2013-03-26 03:47:00,31.6,20.9,29.85,NNE,22,2.5,2.5,64,0.00,,---,0.00,VWS V14.01,2013-03-26 07:47:00,
2013-03-26 03:48:00,31.5,21.4,29.88,NNE,22,2.5,2.5,66,0.00,,---,0.00,VWS V14.01,2013-03-26 07:48:00,
2013-03-26 03:49:00,31.5,21.4,29.88,NNE,22,2.5,2.5,66,0.00,,---,0.00,VWS V14.01,2013-03-26 07:49:00,
2013-03-26 03:52:00,31.6,20.9,29.85,NNE,22,2.5,2.5,64,0.00,,---,0.00,VWS V14.01,2013-03-26 07:52:00,
2013-03-26 03:55:00,31.5,21.4,29.85,NNE,22,2.5,2.5,66,0.00,,---,0.00,VWS V14.01,2013-03-26 07:55:00,
2013-03-26 03:56:00,31.3,21.3,29.85,NNE,22,2.5,2.5,66,0.00,,---,0.00,VWS V14.01,2013-03-26 07:56:00,
2013-03-26 03:57:00,31.6,20.9,29.85,NNE,22,2.5,2.5,64,0.00,,---,0.00,VWS V14.01,2013-03-26 07:57:00,
2013-03-26 03:58:00,31.3,21.3,29.85,NNE,22,2.5,2.5,66,0.00,,---,0.00,VWS V14.01,2013-03-26 07:58:00,
2013-03-26 04:01:00,31.3,21.3,29.85,NNE,22,2.5,2.5,66,0.00,,---,0.00,VWS V14.01,2013-03-26 08:01:00,
2013-03-26 04:02:00,31.6,21.2,29.88,NNE,22,2.5,2.5,65,0.00,,---,0.00,VWS V14.01,2013-03-26 08:02:00,
2013-03-26 04:04:00,31.3,21.6,29.85,NNE,22,2.5,2.5,67,0.00,,---,0.00,VWS V14.01,2013-03-26 08:04:00,
2013-03-26 04:05:00,31.3,21.6,29.88,NNE,22,2.5,2.5,67,0.00,,---,0.00,VWS V14.01,2013-03-26 08:05:00,
2013-03-26 04:07:00,31.5,21.1,29.88,NNE,22,2.5,2.5,65,0.00,,---,0.00,VWS V14.01,2013-03-26 08:07:00,
2013-03-26 04:11:00,31.3,21.6,29.88,NNE,22,2.5,2.5,67,0.00,,---,0.00,VWS V14.01,2013-03-26 08:11:00,
2013-03-26 04:12:00,31.5,21.1,29.88,NNE,22,2.5,2.5,65,0.00,,---,0.00,VWS V14.01,2013-03-26 08:12:00,
2013-03-26 04:17:00,31.5,21.1,29.85,NNE,22,2.5,2.5,65,0.00,,---,0.00,VWS V14.01,2013-03-26 08:17:00,
2013-03-26 04:21:00,31.1,21.8,29.88,NNE,22,2.5,2.5,68,0.00,,---,0.00,VWS V14.01,2013-03-26 08:21:00,
2013-03-26 04:22:00,31.5,21.1,29.85,NNE,22,2.5,2.5,65,0.00,,---,0.00,VWS V14.01,2013-03-26 08:22:00,
2013-03-26 04:25:00,31.1,21.8,29.88,NNE,22,2.5,2.5,68,0.00,,---,0.00,VWS V14.01,2013-03-26 08:25:00,
2013-03-26 04:26:00,31.1,21.8,29.88,NNE,22,2.5,2.5,68,0.00,,---,0.00,VWS V14.01,2013-03-26 08:26:00,
2013-03-26 04:27:00,31.5,21.1,29.85,NNE,22,2.5,2.5,65,0.00,,---,0.00,VWS V14.01,2013-03-26 08:27:00,
2013-03-26 04:28:00,31.1,21.8,29.88,NNE,22,2.5,2.5,68,0.00,,---,0.00,VWS V14.01,2013-03-26 08:28:00,
2013-03-26 04:30:00,31.1,21.8,29.88,NNE,22,2.5,2.5,68,0.00,,---,0.00,VWS V14.01,2013-03-26 08:30:00,
2013-03-26 04:31:00,31.1,21.8,29.88,NNE,22,2.5,2.5,68,0.00,,---,0.00,VWS V14.01,2013-03-26 08:31:00,
2013-03-26 04:32:00,31.5,21.4,29.88,NNE,22,2.5,2.5,66,0.00,,---,0.00,VWS V14.01,2013-03-26 08:32:00,
2013-03-26 04:37:00,31.5,21.4,29.88,NNE,22,2.5,2.5,66,0.00,,---,0.00,VWS V14.01,2013-03-26 08:37:00,
2013-03-26 04:38:00,31.1,22.1,29.88,NNE,22,2.5,2.5,69,0.00,,---,0.00,VWS V14.01,2013-03-26 08:38:00,
2013-03-26 04:39:00,31.1,22.1,29.88,NNE,22,2.5,2.5,69,0.00,,---,0.00,VWS V14.01,2013-03-26 08:39:00,
2013-03-26 04:41:00,31.1,22.1,29.88,NNE,22,2.5,2.5,69,0.00,,---,0.00,VWS V14.01,2013-03-26 08:41:00,
2013-03-26 04:42:00,31.5,21.4,29.88,NNE,22,2.5,2.5,66,0.00,,---,0.00,VWS V14.01,2013-03-26 08:42:00,
2013-03-26 04:44:00,31.1,22.1,29.88,NNE,22,2.5,2.5,69,0.00,,---,0.00,VWS V14.01,2013-03-26 08:44:00,
2013-03-26 04:45:00,31.1,22.1,29.88,NNE,22,2.5,2.5,69,0.00,,---,0.00,VWS V14.01,2013-03-26 08:45:00,
2013-03-26 04:47:00,31.5,21.4,29.85,NNE,22,2.5,2.5,66,0.00,,---,0.00,VWS V14.01,2013-03-26 08:47:00,
2013-03-26 04:52:00,31.3,21.3,29.85,NNE,22,2.5,2.5,66,0.00,,---,0.00,VWS V14.01,2013-03-26 08:52:00,
2013-03-26 04:57:00,31.3,21.6,29.85,NNE,22,2.5,2.5,67,0.00,,---,0.00,VWS V14.01,2013-03-26 08:57:00,
2013-03-26 05:02:00,31.3,21.6,29.88,NNE,22,2.5,2.5,67,0.00,,---,0.00,VWS V14.01,2013-03-26 09:02:00,
2013-03-26 05:07:00,31.3,21.6,29.88,NNE,22,2.5,2.5,67,0.00,,---,0.00,VWS V14.01,2013-03-26 09:07:00,
2013-03-26 05:12:00,31.1,21.4,29.88,NNE,22,2.5,2.5,67,0.00,,---,0.00,VWS V14.01,2013-03-26 09:12:00,
2013-03-26 05:17:00,31.1,21.8,29.88,NNE,22,2.5,2.5,68,0.00,,---,0.00,VWS V14.01,2013-03-26 09:17:00,
2013-03-26 05:22:00,31.1,21.8,29.88,NNE,22,2.5,2.5,68,0.00,,---,0.00,VWS V14.01,2013-03-26 09:22:00,
2013-03-26 05:27:00,31.1,22.1,29.88,NNE,22,2.5,2.5,69,0.00,,---,0.00,VWS V14.01,2013-03-26 09:27:00,
2013-03-26 05:28:00,30.9,23.6,29.91,NNE,22,2.5,2.5,74,0.00,,---,0.00,VWS V14.01,2013-03-26 09:28:00,
2013-03-26 05:29:00,30.9,23.6,29.91,NNE,22,2.5,2.5,74,0.00,,---,0.00,VWS V14.01,2013-03-26 09:29:00,
2013-03-26 05:32:00,31.1,22.1,29.88,NNE,22,2.5,2.5,69,0.00,,---,0.00,VWS V14.01,2013-03-26 09:32:00,
2013-03-26 05:33:00,30.9,23.6,29.91,NNE,22,2.5,2.5,74,0.00,,---,0.00,VWS V14.01,2013-03-26 09:33:00,
2013-03-26 05:34:00,30.7,23.5,29.91,NNE,22,2.5,2.5,74,0.00,,---,0.00,VWS V14.01,2013-03-26 09:34:00,
2013-03-26 05:35:00,30.7,23.5,29.91,NNE,22,2.5,2.5,74,0.00,,---,0.00,VWS V14.01,2013-03-26 09:35:00,
2013-03-26 05:36:00,30.7,23.5,29.91,NNE,22,2.5,2.5,74,0.00,,---,0.00,VWS V14.01,2013-03-26 09:36:00,
2013-03-26 05:37:00,31.1,22.1,29.88,NNE,22,2.5,2.5,69,0.00,,---,0.00,VWS V14.01,2013-03-26 09:37:00,
2013-03-26 05:38:00,30.7,23.8,29.91,NNE,22,2.5,2.5,75,0.00,,---,0.00,VWS V14.01,2013-03-26 09:38:00,
2013-03-26 05:41:00,30.7,23.8,29.91,NNE,22,2.5,2.5,75,0.00,,---,0.00,VWS V14.01,2013-03-26 09:41:00,
2013-03-26 05:42:00,31.1,22.1,29.88,NNE,22,2.5,2.5,69,0.00,,---,0.00,VWS V14.01,2013-03-26 09:42:00,
2013-03-26 05:43:00,30.6,23.6,29.91,NNE,22,2.5,2.5,75,0.00,,---,0.00,VWS V14.01,2013-03-26 09:43:00,
2013-03-26 05:44:00,30.6,23.6,29.91,NNE,22,2.5,2.5,75,0.00,,---,0.00,VWS V14.01,2013-03-26 09:44:00,
2013-03-26 05:45:00,30.6,23.9,29.91,NNE,22,2.5,2.5,76,0.00,,---,0.00,VWS V14.01,2013-03-26 09:45:00,
2013-03-26 05:46:00,30.6,23.9,29.91,NNE,22,2.5,2.5,76,0.00,,---,0.00,VWS V14.01,2013-03-26 09:46:00,
2013-03-26 05:47:00,31.1,22.1,29.88,NNE,22,2.5,2.5,69,0.00,,---,0.00,VWS V14.01,2013-03-26 09:47:00,
2013-03-26 05:48:00,30.6,23.9,29.91,NNE,22,2.5,2.5,76,0.00,,---,0.00,VWS V14.01,2013-03-26 09:48:00,
2013-03-26 05:49:00,30.6,23.9,29.91,NNE,22,2.5,2.5,76,0.00,,---,0.00,VWS V14.01,2013-03-26 09:49:00,
2013-03-26 05:50:00,30.4,23.7,29.91,NNE,22,2.5,2.5,76,0.00,,---,0.00,VWS V14.01,2013-03-26 09:50:00,
2013-03-26 05:51:00,30.4,23.7,29.91,NNE,22,2.5,2.5,76,0.00,,---,0.00,VWS V14.01,2013-03-26 09:51:00,
2013-03-26 05:52:00,31.1,22.1,29.88,NNE,22,2.5,2.5,69,0.00,,---,0.00,VWS V14.01,2013-03-26 09:52:00,
2013-03-26 05:53:00,30.4,24.0,29.91,NNE,22,2.5,2.5,77,0.00,,---,0.00,VWS V14.01,2013-03-26 09:53:00,
2013-03-26 05:54:00,30.4,24.0,29.91,NNE,22,2.5,2.5,77,0.00,,---,0.00,VWS V14.01,2013-03-26 09:54:00,
2013-03-26 05:56:00,30.4,24.0,29.91,NNE,22,2.5,2.5,77,0.00,,---,0.00,VWS V14.01,2013-03-26 09:56:00,
2013-03-26 05:57:00,31.1,22.5,29.88,NNE,22,2.5,2.5,70,0.00,,---,0.00,VWS V14.01,2013-03-26 09:57:00,
2013-03-26 05:58:00,30.4,24.0,29.91,NNE,22,2.5,2.5,77,0.00,,---,0.00,VWS V14.01,2013-03-26 09:58:00,
2013-03-26 05:59:00,30.4,24.0,29.91,NNE,22,2.5,2.5,77,0.00,,---,0.00,VWS V14.01,2013-03-26 09:59:00,
2013-03-26 06:01:00,30.2,23.9,29.91,NNE,22,2.5,2.5,77,0.00,,---,0.00,VWS V14.01,2013-03-26 10:01:00,
2013-03-26 06:02:00,31.1,22.8,29.88,NNE,22,2.5,2.5,71,0.00,,---,0.00,VWS V14.01,2013-03-26 10:02:00,
2013-03-26 06:03:00,30.2,23.9,29.91,NNE,22,2.5,2.5,77,0.00,,---,0.00,VWS V14.01,2013-03-26 10:03:00,
2013-03-26 06:04:00,30.2,23.9,29.91,NNE,22,2.5,2.5,77,0.00,,---,0.00,VWS V14.01,2013-03-26 10:04:00,
2013-03-26 06:05:00,30.2,23.9,29.91,NNE,22,2.5,2.5,77,0.00,,---,0.00,VWS V14.01,2013-03-26 10:05:00,
2013-03-26 06:06:00,30.2,23.9,29.94,NNE,22,2.5,2.5,77,0.00,,---,0.00,VWS V14.01,2013-03-26 10:06:00,
2013-03-26 06:07:00,30.9,23.0,29.88,NNE,22,2.5,2.5,72,0.00,,---,0.00,VWS V14.01,2013-03-26 10:07:00,
2013-03-26 06:08:00,30.2,23.9,29.94,NNE,22,2.5,2.5,77,0.00,,---,0.00,VWS V14.01,2013-03-26 10:08:00,
2013-03-26 06:09:00,30.2,23.9,29.94,NNE,22,2.5,2.5,77,0.00,,---,0.00,VWS V14.01,2013-03-26 10:09:00,
2013-03-26 06:12:00,30.9,23.0,29.88,NNE,22,2.5,2.5,72,0.00,,---,0.00,VWS V14.01,2013-03-26 10:12:00,
2013-03-26 06:13:00,30.0,23.7,29.94,NNE,22,2.5,2.5,77,0.00,,---,0.00,VWS V14.01,2013-03-26 10:13:00,
2013-03-26 06:14:00,30.0,23.7,29.94,NNE,22,2.5,2.5,77,0.00,,---,0.00,VWS V14.01,2013-03-26 10:14:00,
2013-03-26 06:15:00,30.0,23.7,29.94,NNE,22,2.5,2.5,77,0.00,,---,0.00,VWS V14.01,2013-03-26 10:15:00,
2013-03-26 06:17:00,30.9,23.3,29.91,NNE,22,2.5,2.5,73,0.00,,---,0.00,VWS V14.01,2013-03-26 10:17:00,
2013-03-26 06:22:00,30.9,23.6,29.91,NNE,22,2.5,2.5,74,0.00,,---,0.00,VWS V14.01,2013-03-26 10:22:00,
2013-03-26 06:23:00,29.8,23.5,29.94,NNE,22,2.5,2.5,77,0.00,,---,0.00,VWS V14.01,2013-03-26 10:23:00,
2013-03-26 06:26:00,29.8,23.5,29.94,NNE,22,2.5,2.5,77,0.00,,---,0.00,VWS V14.01,2013-03-26 10:26:00,
2013-03-26 06:27:00,30.9,23.6,29.91,NNE,22,2.5,2.5,74,0.00,,---,0.00,VWS V14.01,2013-03-26 10:27:00,
2013-03-26 06:28:00,29.8,23.5,29.94,NNE,22,2.5,2.5,77,0.00,,---,0.00,VWS V14.01,2013-03-26 10:28:00,
2013-03-26 06:29:00,29.8,23.5,29.94,NNE,22,2.5,2.5,77,0.00,,---,0.00,VWS V14.01,2013-03-26 10:29:00,
2013-03-26 06:30:00,29.8,23.5,29.94,NNE,22,2.5,2.5,77,0.00,,---,0.00,VWS V14.01,2013-03-26 10:30:00,
2013-03-26 06:31:00,29.8,23.5,29.94,NNE,22,2.5,2.5,77,0.00,,---,0.00,VWS V14.01,2013-03-26 10:31:00,
2013-03-26 06:32:00,30.7,23.8,29.91,NNE,22,2.5,2.5,75,0.00,,---,0.00,VWS V14.01,2013-03-26 10:32:00,
2013-03-26 06:36:00,29.8,23.5,29.94,NNE,22,2.5,2.5,77,0.00,,---,0.00,VWS V14.01,2013-03-26 10:36:00,
2013-03-26 06:37:00,30.6,23.6,29.91,NNE,22,2.5,2.5,75,0.00,,---,0.00,VWS V14.01,2013-03-26 10:37:00,
2013-03-26 06:38:00,29.8,23.5,29.94,NNE,22,2.5,2.5,77,0.00,,---,0.00,VWS V14.01,2013-03-26 10:38:00,
2013-03-26 06:42:00,30.6,23.9,29.91,NNE,22,2.5,2.5,76,0.00,,---,0.00,VWS V14.01,2013-03-26 10:42:00,
2013-03-26 06:47:00,30.4,24.0,29.91,NNE,22,2.5,2.5,77,0.00,,---,0.00,VWS V14.01,2013-03-26 10:47:00,
2013-03-26 06:48:00,29.8,23.5,29.94,NNE,22,2.5,2.5,77,0.00,,---,0.00,VWS V14.01,2013-03-26 10:48:00,
2013-03-26 06:49:00,29.8,23.5,29.94,NNE,22,2.5,2.5,77,0.00,,---,0.00,VWS V14.01,2013-03-26 10:49:00,
2013-03-26 06:50:00,29.8,23.5,29.91,NNE,22,2.5,2.5,77,0.00,,---,0.00,VWS V14.01,2013-03-26 10:50:00,
2013-03-26 06:51:00,29.8,23.5,29.91,NNE,22,2.5,2.5,77,0.00,,---,0.00,VWS V14.01,2013-03-26 10:51:00,
2013-03-26 06:52:00,30.4,24.0,29.91,NNE,22,2.5,2.5,77,0.00,,---,0.00,VWS V14.01,2013-03-26 10:52:00,
2013-03-26 06:53:00,29.8,23.5,29.91,NNE,22,2.5,2.5,77,0.00,,---,0.00,VWS V14.01,2013-03-26 10:53:00,
2013-03-26 06:55:00,29.8,23.5,29.91,NNE,22,2.5,2.5,77,0.00,,---,0.00,VWS V14.01,2013-03-26 10:55:00,
2013-03-26 06:56:00,29.8,23.5,29.91,NNE,22,2.5,2.5,77,0.00,,---,0.00,VWS V14.01,2013-03-26 10:56:00,
2013-03-26 06:57:00,30.2,23.9,29.91,NNE,22,2.5,2.5,77,0.00,,---,0.00,VWS V14.01,2013-03-26 10:57:00,
2013-03-26 07:02:00,30.2,23.9,29.94,NNE,22,2.5,2.5,77,0.00,,---,0.00,VWS V14.01,2013-03-26 11:02:00,
2013-03-26 07:03:00,30.0,23.7,29.91,NNE,22,2.5,2.5,77,0.00,,---,0.00,VWS V14.01,2013-03-26 11:03:00,
2013-03-26 07:04:00,30.0,24.0,29.91,NNE,22,2.5,2.5,78,0.00,,---,0.00,VWS V14.01,2013-03-26 11:04:00,
2013-03-26 07:05:00,30.0,24.0,29.91,NNE,22,2.5,2.5,78,0.00,,---,0.00,VWS V14.01,2013-03-26 11:05:00,
2013-03-26 07:06:00,30.0,24.0,29.94,NNE,22,2.5,2.5,78,0.00,,---,0.00,VWS V14.01,2013-03-26 11:06:00,
2013-03-26 07:07:00,30.0,23.7,29.94,NNE,22,2.5,2.5,77,0.00,,---,0.00,VWS V14.01,2013-03-26 11:07:00,
2013-03-26 07:12:00,30.0,23.7,29.94,NNE,22,2.5,2.5,77,0.00,,---,0.00,VWS V14.01,2013-03-26 11:12:00,
2013-03-26 07:17:00,29.8,23.5,29.94,NNE,22,2.5,2.5,77,0.00,,---,0.00,VWS V14.01,2013-03-26 11:17:00,
2013-03-26 07:19:00,30.2,24.2,29.94,NNE,22,2.5,2.5,78,0.00,,---,0.00,VWS V14.01,2013-03-26 11:19:00,
2013-03-26 07:20:00,30.2,24.2,29.94,NNE,22,2.5,2.5,78,0.00,,---,0.00,VWS V14.01,2013-03-26 11:20:00,
2013-03-26 07:21:00,30.2,24.2,29.91,NNE,22,2.5,2.5,78,0.00,,---,0.00,VWS V14.01,2013-03-26 11:21:00,
2013-03-26 07:22:00,29.8,23.5,29.94,NNE,22,2.5,2.5,77,0.00,,---,0.00,VWS V14.01,2013-03-26 11:22:00,
2013-03-26 07:26:00,30.2,24.2,29.91,NNE,22,2.5,2.5,78,0.00,,---,0.00,VWS V14.01,2013-03-26 11:26:00,
2013-03-26 07:27:00,29.8,23.5,29.94,NNE,22,2.5,2.5,77,0.00,,---,0.00,VWS V14.01,2013-03-26 11:27:00,
2013-03-26 07:28:00,30.4,24.4,29.91,NNE,22,2.5,2.5,78,0.00,,---,0.00,VWS V14.01,2013-03-26 11:28:00,
2013-03-26 07:32:00,29.8,23.5,29.94,NNE,22,2.5,2.5,77,0.00,,---,0.00,VWS V14.01,2013-03-26 11:32:00,
2013-03-26 07:36:00,30.6,24.5,29.94,NNE,22,2.5,2.5,78,0.00,,---,0.00,VWS V14.01,2013-03-26 11:36:00,
2013-03-26 07:37:00,29.8,23.5,29.94,NNE,22,2.5,2.5,77,0.00,,---,0.00,VWS V14.01,2013-03-26 11:37:00,
2013-03-26 07:39:00,30.6,24.5,29.94,NNE,22,2.5,2.5,78,0.00,,---,0.00,VWS V14.01,2013-03-26 11:39:00,
2013-03-26 07:40:00,30.6,24.5,29.94,NNE,22,2.5,2.5,78,0.00,,---,0.00,VWS V14.01,2013-03-26 11:40:00,
2013-03-26 07:41:00,30.6,24.5,29.94,NNE,22,2.5,2.5,78,0.00,,---,0.00,VWS V14.01,2013-03-26 11:41:00,
2013-03-26 07:42:00,29.8,23.5,29.94,NNE,22,2.5,2.5,77,0.00,,---,0.00,VWS V14.01,2013-03-26 11:42:00,
2013-03-26 07:43:00,30.7,24.7,29.94,NNE,22,2.5,2.5,78,0.00,,---,0.00,VWS V14.01,2013-03-26 11:43:00,
2013-03-26 07:44:00,30.7,24.7,29.94,NNE,22,2.5,2.5,78,0.00,,---,0.00,VWS V14.01,2013-03-26 11:44:00,
2013-03-26 07:45:00,30.7,24.7,29.94,NNE,22,2.5,2.5,78,0.00,,---,0.00,VWS V14.01,2013-03-26 11:45:00,
2013-03-26 07:46:00,30.7,24.7,29.94,NNE,22,2.5,2.5,78,0.00,,---,0.00,VWS V14.01,2013-03-26 11:46:00,
2013-03-26 07:47:00,29.8,23.5,29.91,NNE,22,2.5,2.5,77,0.00,,---,0.00,VWS V14.01,2013-03-26 11:47:00,
2013-03-26 07:48:00,30.7,24.7,29.94,NNE,22,2.5,2.5,78,0.00,,---,0.00,VWS V14.01,2013-03-26 11:48:00,
2013-03-26 07:49:00,30.9,24.9,29.94,NNE,22,2.5,2.5,78,0.00,,---,0.00,VWS V14.01,2013-03-26 11:49:00,
2013-03-26 07:50:00,30.9,24.9,29.94,NNE,22,2.5,2.5,78,0.00,,---,0.00,VWS V14.01,2013-03-26 11:50:00,
2013-03-26 07:51:00,30.9,24.9,29.94,NNE,22,2.5,2.5,78,0.00,,---,0.00,VWS V14.01,2013-03-26 11:51:00,
2013-03-26 07:52:00,30.0,23.7,29.91,NNE,22,2.5,2.5,77,0.00,,---,0.00,VWS V14.01,2013-03-26 11:52:00,
2013-03-26 07:53:00,30.9,24.9,29.94,NNE,22,2.5,2.5,78,0.00,,---,0.00,VWS V14.01,2013-03-26 11:53:00,
2013-03-26 07:54:00,30.9,24.9,29.94,NNE,22,2.5,2.5,78,0.00,,---,0.00,VWS V14.01,2013-03-26 11:54:00,
2013-03-26 07:55:00,30.9,24.9,29.94,NNE,22,2.5,2.5,78,0.00,,---,0.00,VWS V14.01,2013-03-26 11:55:00,
2013-03-26 07:56:00,30.9,24.9,29.94,NNE,22,2.5,2.5,78,0.00,,---,0.00,VWS V14.01,2013-03-26 11:56:00,
2013-03-26 07:57:00,30.0,23.7,29.91,NNE,22,2.5,2.5,77,0.00,,---,0.00,VWS V14.01,2013-03-26 11:57:00,
2013-03-26 07:58:00,31.1,24.8,29.94,NNE,22,2.5,2.5,77,0.00,,---,0.00,VWS V14.01,2013-03-26 11:58:00,
2013-03-26 07:59:00,31.1,24.8,29.94,NNE,22,2.5,2.5,77,0.00,,---,0.00,VWS V14.01,2013-03-26 11:59:00,
2013-03-26 08:00:00,31.1,25.0,29.94,NNE,22,2.5,2.5,78,0.00,,---,0.00,VWS V14.01,2013-03-26 12:00:00,
2013-03-26 08:01:00,31.1,25.0,29.94,NNE,22,2.5,2.5,78,0.00,,---,0.00,VWS V14.01,2013-03-26 12:01:00,
2013-03-26 08:02:00,30.0,24.0,29.94,NNE,22,2.5,2.5,78,0.00,,---,0.00,VWS V14.01,2013-03-26 12:02:00,
2013-03-26 08:03:00,31.1,24.8,29.94,NNE,22,2.5,2.5,77,0.00,,---,0.00,VWS V14.01,2013-03-26 12:03:00,
2013-03-26 08:04:00,31.1,24.8,29.94,NNE,22,2.5,2.5,77,0.00,,---,0.00,VWS V14.01,2013-03-26 12:04:00,
2013-03-26 08:05:00,31.1,24.8,29.94,NNE,22,2.5,2.5,77,0.00,,---,0.00,VWS V14.01,2013-03-26 12:05:00,
2013-03-26 08:06:00,31.3,24.9,29.97,NNE,22,2.5,2.5,77,0.00,,---,0.00,VWS V14.01,2013-03-26 12:06:00,
2013-03-26 08:07:00,30.2,24.2,29.94,NNE,22,2.5,2.5,78,0.00,,---,0.00,VWS V14.01,2013-03-26 12:07:00,
2013-03-26 08:08:00,31.3,24.9,29.97,NNE,22,2.5,2.5,77,0.00,,---,0.00,VWS V14.01,2013-03-26 12:08:00,
2013-03-26 08:09:00,31.3,24.9,29.97,NNE,22,2.5,2.5,77,0.00,,---,0.00,VWS V14.01,2013-03-26 12:09:00,
2013-03-26 08:10:00,31.3,24.9,29.97,NNE,22,2.5,2.5,77,0.00,,---,0.00,VWS V14.01,2013-03-26 12:10:00,
2013-03-26 08:11:00,31.3,24.9,29.97,NNE,22,2.5,2.5,77,0.00,,---,0.00,VWS V14.01,2013-03-26 12:11:00,
2013-03-26 08:12:00,30.2,24.2,29.94,NNE,22,2.5,2.5,78,0.00,,---,0.00,VWS V14.01,2013-03-26 12:12:00,
2013-03-26 08:13:00,31.5,25.1,29.97,NNE,22,2.5,2.5,77,0.00,,---,0.00,VWS V14.01,2013-03-26 12:13:00,
2013-03-26 08:14:00,31.5,25.1,29.97,NNE,22,2.5,2.5,77,0.00,,---,0.00,VWS V14.01,2013-03-26 12:14:00,
2013-03-26 08:16:00,31.5,25.1,29.97,NNE,22,2.5,2.5,77,0.00,,---,0.00,VWS V14.01,2013-03-26 12:16:00,
2013-03-26 08:17:00,30.2,24.2,29.91,NNE,22,2.5,2.5,78,0.00,,---,0.00,VWS V14.01,2013-03-26 12:17:00,
2013-03-26 08:18:00,31.6,25.3,29.97,NNE,22,2.5,2.5,77,0.00,,---,0.00,VWS V14.01,2013-03-26 12:18:00,
2013-03-26 08:19:00,31.6,25.3,29.97,NNE,22,2.5,2.5,77,0.00,,---,0.00,VWS V14.01,2013-03-26 12:19:00,
2013-03-26 08:20:00,31.6,25.3,29.97,NNE,22,2.5,2.5,77,0.00,,---,0.00,VWS V14.01,2013-03-26 12:20:00,
2013-03-26 08:21:00,31.6,25.3,29.97,NNE,22,2.5,2.5,77,0.00,,---,0.00,VWS V14.01,2013-03-26 12:21:00,
2013-03-26 08:22:00,30.4,24.4,29.91,NNE,22,2.5,2.5,78,0.00,,---,0.00,VWS V14.01,2013-03-26 12:22:00,
2013-03-26 08:25:00,31.8,25.4,29.97,NNE,22,2.5,2.5,77,0.00,,---,0.00,VWS V14.01,2013-03-26 12:25:00,
2013-03-26 08:26:00,31.8,25.4,29.97,NNE,22,2.5,2.5,77,0.00,,---,0.00,VWS V14.01,2013-03-26 12:26:00,
2013-03-26 08:27:00,30.4,24.4,29.91,NNE,22,2.5,2.5,78,0.00,,---,0.00,VWS V14.01,2013-03-26 12:27:00,
2013-03-26 08:28:00,31.8,25.4,29.97,NNE,22,2.5,2.5,77,0.00,,---,0.00,VWS V14.01,2013-03-26 12:28:00,
2013-03-26 08:29:00,32.0,25.6,29.97,NNE,22,2.5,2.5,77,0.00,,---,0.00,VWS V14.01,2013-03-26 12:29:00,
2013-03-26 08:30:00,32.0,25.6,29.97,NNE,22,2.5,2.5,77,0.00,,---,0.00,VWS V14.01,2013-03-26 12:30:00,
2013-03-26 08:31:00,32.0,25.6,29.97,NNE,22,2.5,2.5,77,0.00,,---,0.00,VWS V14.01,2013-03-26 12:31:00,
2013-03-26 08:32:00,30.6,24.5,29.94,NNE,22,2.5,2.5,78,0.00,,---,0.00,VWS V14.01,2013-03-26 12:32:00,
2013-03-26 08:35:00,32.2,25.8,29.97,NNE,22,2.5,2.5,77,0.00,,---,0.00,VWS V14.01,2013-03-26 12:35:00,
2013-03-26 08:36:00,32.2,25.8,29.97,NNE,22,2.5,2.5,77,0.00,,---,0.00,VWS V14.01,2013-03-26 12:36:00,
2013-03-26 08:37:00,30.7,24.7,29.94,NNE,22,2.5,2.5,78,0.00,,---,0.00,VWS V14.01,2013-03-26 12:37:00,
2013-03-26 08:38:00,32.4,26.0,29.97,NNE,22,2.5,2.5,77,0.00,,---,0.00,VWS V14.01,2013-03-26 12:38:00,
2013-03-26 08:39:00,32.4,26.0,29.97,NNE,22,2.5,2.5,77,0.00,,---,0.00,VWS V14.01,2013-03-26 12:39:00,
2013-03-26 08:40:00,32.4,26.0,29.97,NNE,22,2.5,2.5,77,0.00,,---,0.00,VWS V14.01,2013-03-26 12:40:00,
2013-03-26 08:41:00,32.4,26.0,29.97,NNE,22,2.5,2.5,77,0.00,,---,0.00,VWS V14.01,2013-03-26 12:41:00,
2013-03-26 08:42:00,30.9,24.9,29.94,NNE,22,2.5,2.5,78,0.00,,---,0.00,VWS V14.01,2013-03-26 12:42:00,
2013-03-26 08:43:00,32.5,25.8,29.97,NNE,22,2.5,2.5,76,0.00,,---,0.00,VWS V14.01,2013-03-26 12:43:00,
2013-03-26 08:44:00,32.5,25.8,29.97,NNE,22,2.5,2.5,76,0.00,,---,0.00,VWS V14.01,2013-03-26 12:44:00,
2013-03-26 08:45:00,32.5,25.8,29.97,NNE,22,2.5,2.5,76,0.00,,---,0.00,VWS V14.01,2013-03-26 12:45:00,
2013-03-26 08:46:00,32.5,25.8,29.97,NNE,22,2.5,2.5,76,0.00,,---,0.00,VWS V14.01,2013-03-26 12:46:00,
2013-03-26 08:47:00,30.9,24.9,29.94,NNE,22,2.5,2.5,78,0.00,,---,0.00,VWS V14.01,2013-03-26 12:47:00,
2013-03-26 08:48:00,32.7,26.0,29.97,NNE,22,2.5,2.5,76,0.00,,---,0.00,VWS V14.01,2013-03-26 12:48:00,
2013-03-26 08:49:00,32.7,26.0,29.97,NNE,22,2.5,2.5,76,0.00,,---,0.00,VWS V14.01,2013-03-26 12:49:00,
2013-03-26 08:50:00,32.7,26.0,29.97,NNE,22,2.5,2.5,76,0.00,,---,0.00,VWS V14.01,2013-03-26 12:50:00,
2013-03-26 08:51:00,32.7,26.0,29.97,NNE,22,2.5,2.5,76,0.00,,---,0.00,VWS V14.01,2013-03-26 12:51:00,
2013-03-26 08:52:00,31.1,24.8,29.94,NNE,22,2.5,2.5,77,0.00,,---,0.00,VWS V14.01,2013-03-26 12:52:00,
2013-03-26 08:54:00,32.9,26.2,29.97,NNE,22,2.5,2.5,76,0.00,,---,0.00,VWS V14.01,2013-03-26 12:54:00,
2013-03-26 08:55:00,32.9,25.9,29.97,NNE,22,2.5,2.5,75,0.00,,---,0.00,VWS V14.01,2013-03-26 12:55:00,
2013-03-26 08:56:00,32.9,25.9,29.97,NNE,22,2.5,2.5,75,0.00,,---,0.00,VWS V14.01,2013-03-26 12:56:00,
2013-03-26 08:57:00,31.1,24.8,29.94,NNE,22,2.5,2.5,77,0.00,,---,0.00,VWS V14.01,2013-03-26 12:57:00,
2013-03-26 08:58:00,33.1,26.0,29.97,NNE,22,2.5,2.5,75,0.00,,---,0.00,VWS V14.01,2013-03-26 12:58:00,
2013-03-26 08:59:00,33.1,26.0,29.97,NNE,22,2.5,2.5,75,0.00,,---,0.00,VWS V14.01,2013-03-26 12:59:00,
2013-03-26 09:00:00,33.1,26.0,29.97,NNE,22,2.5,2.5,75,0.00,,---,0.00,VWS V14.01,2013-03-26 13:00:00,
2013-03-26 09:01:00,33.1,26.0,29.97,NNE,22,2.5,2.5,75,0.00,,---,0.00,VWS V14.01,2013-03-26 13:01:00,
2013-03-26 09:02:00,31.3,24.9,29.97,NNE,22,2.5,2.5,77,0.00,,---,0.00,VWS V14.01,2013-03-26 13:02:00,
2013-03-26 09:03:00,33.3,25.9,29.97,NNE,22,2.5,2.5,74,0.00,,---,0.00,VWS V14.01,2013-03-26 13:03:00,
2013-03-26 09:04:00,33.3,25.9,29.97,NNE,22,2.5,2.5,74,0.00,,---,0.00,VWS V14.01,2013-03-26 13:04:00,
2013-03-26 09:05:00,33.3,25.9,29.97,NNE,22,2.5,2.5,74,0.00,,---,0.00,VWS V14.01,2013-03-26 13:05:00,
2013-03-26 09:06:00,33.4,26.1,29.97,NNE,22,2.5,2.5,74,0.00,,---,0.00,VWS V14.01,2013-03-26 13:06:00,
2013-03-26 09:07:00,31.5,25.1,29.97,NNE,22,2.5,2.5,77,0.00,,---,0.00,VWS V14.01,2013-03-26 13:07:00,
2013-03-26 09:10:00,33.6,26.2,29.97,NNE,22,2.5,2.5,74,0.00,,---,0.00,VWS V14.01,2013-03-26 13:10:00,
2013-03-26 09:11:00,33.6,26.2,29.97,NNE,22,2.5,2.5,74,0.00,,---,0.00,VWS V14.01,2013-03-26 13:11:00,
2013-03-26 09:12:00,31.6,25.3,29.97,NNE,22,2.5,2.5,77,0.00,,---,0.00,VWS V14.01,2013-03-26 13:12:00,
2013-03-26 09:17:00,31.8,25.4,29.97,NNE,22,2.5,2.5,77,0.00,,---,0.00,VWS V14.01,2013-03-26 13:17:00,
2013-03-26 09:18:00,34.0,26.2,29.97,NNE,22,2.5,2.5,73,0.00,,---,0.00,VWS V14.01,2013-03-26 13:18:00,
2013-03-26 09:19:00,34.0,26.2,29.97,NNE,22,2.5,2.5,73,0.00,,---,0.00,VWS V14.01,2013-03-26 13:19:00,
2013-03-26 09:20:00,34.0,26.2,29.97,NNE,22,2.5,2.5,73,0.00,,---,0.00,VWS V14.01,2013-03-26 13:20:00,
2013-03-26 09:21:00,34.0,26.2,29.97,NNE,22,2.5,2.5,73,0.00,,---,0.00,VWS V14.01,2013-03-26 13:21:00,
2013-03-26 09:22:00,32.0,25.6,29.97,NNE,22,2.5,2.5,77,0.00,,---,0.00,VWS V14.01,2013-03-26 13:22:00,
2013-03-26 09:27:00,32.2,25.8,29.97,NNE,22,2.5,2.5,77,0.00,,---,0.00,VWS V14.01,2013-03-26 13:27:00,
2013-03-26 09:29:00,34.7,26.6,29.97,NNE,22,2.5,2.5,72,0.00,,---,0.00,VWS V14.01,2013-03-26 13:29:00,
2013-03-26 09:30:00,34.7,26.6,29.97,NNE,22,2.5,2.5,72,0.00,,---,0.00,VWS V14.01,2013-03-26 13:30:00,
2013-03-26 09:31:00,34.9,26.5,29.97,NNE,22,2.5,2.5,71,0.00,,---,0.00,VWS V14.01,2013-03-26 13:31:00,
2013-03-26 09:32:00,32.4,26.0,29.97,NNE,22,2.5,2.5,77,0.00,,---,0.00,VWS V14.01,2013-03-26 13:32:00,
2013-03-26 09:33:00,35.1,26.6,29.97,NNE,22,2.5,2.5,71,0.00,,---,0.00,VWS V14.01,2013-03-26 13:33:00,
2013-03-26 09:37:00,32.5,25.8,29.97,NNE,22,2.5,2.5,76,0.00,,---,0.00,VWS V14.01,2013-03-26 13:37:00,
2013-03-26 09:38:00,35.4,27.0,29.97,NNE,22,2.5,2.5,71,0.00,,---,0.00,VWS V14.01,2013-03-26 13:38:00,
2013-03-26 09:39:00,35.4,27.0,29.97,NNE,22,2.5,2.5,71,0.00,,---,0.00,VWS V14.01,2013-03-26 13:39:00,
2013-03-26 09:41:00,35.4,26.6,29.97,NNE,22,2.5,2.5,70,0.00,,---,0.00,VWS V14.01,2013-03-26 13:41:00,
2013-03-26 09:42:00,32.7,26.0,29.97,NNE,22,2.5,2.5,76,0.00,,---,0.00,VWS V14.01,2013-03-26 13:42:00,
2013-03-26 09:44:00,35.6,26.5,29.97,NNE,22,2.5,2.5,69,0.00,,---,0.00,VWS V14.01,2013-03-26 13:44:00,
2013-03-26 09:45:00,35.6,26.5,29.97,NNE,22,2.5,2.5,69,0.00,,---,0.00,VWS V14.01,2013-03-26 13:45:00,
2013-03-26 09:46:00,35.8,26.3,29.97,NNE,22,2.5,2.5,68,0.00,,---,0.00,VWS V14.01,2013-03-26 13:46:00,
2013-03-26 09:47:00,32.9,26.2,29.97,NNE,22,2.5,2.5,76,0.00,,---,0.00,VWS V14.01,2013-03-26 13:47:00,
2013-03-26 09:48:00,35.8,26.3,29.97,NNE,22,2.5,2.5,68,0.00,,---,0.00,VWS V14.01,2013-03-26 13:48:00,
2013-03-26 09:49:00,35.8,26.3,29.97,NNE,22,2.5,2.5,68,0.00,,---,0.00,VWS V14.01,2013-03-26 13:49:00,
2013-03-26 09:50:00,35.8,26.3,29.97,NNE,22,2.5,2.5,68,0.00,,---,0.00,VWS V14.01,2013-03-26 13:50:00,
2013-03-26 09:51:00,35.8,25.9,30.00,NNE,22,2.5,2.5,67,0.00,,---,0.00,VWS V14.01,2013-03-26 13:51:00,
2013-03-26 09:52:00,33.1,26.0,29.97,NNE,22,2.5,2.5,75,0.00,,---,0.00,VWS V14.01,2013-03-26 13:52:00,
2013-03-26 09:53:00,36.0,26.1,30.00,NNE,22,2.5,2.5,67,0.00,,---,0.00,VWS V14.01,2013-03-26 13:53:00,
2013-03-26 09:54:00,36.1,26.3,30.00,NNE,22,2.5,2.5,67,0.00,,---,0.00,VWS V14.01,2013-03-26 13:54:00,
2013-03-26 09:55:00,36.1,26.3,30.00,NNE,22,2.5,2.5,67,0.00,,---,0.00,VWS V14.01,2013-03-26 13:55:00,
2013-03-26 09:56:00,36.3,26.4,30.00,NNE,22,2.5,2.5,67,0.00,,---,0.00,VWS V14.01,2013-03-26 13:56:00,
2013-03-26 09:57:00,33.3,25.9,29.97,NNE,22,2.5,2.5,74,0.00,,---,0.00,VWS V14.01,2013-03-26 13:57:00,
2013-03-26 09:58:00,36.3,26.4,30.00,NNE,22,2.5,2.5,67,0.00,,---,0.00,VWS V14.01,2013-03-26 13:58:00,
2013-03-26 09:59:00,36.5,26.6,30.00,NNE,22,2.5,2.5,67,0.00,,---,0.00,VWS V14.01,2013-03-26 13:59:00,
2013-03-26 10:00:00,36.5,26.6,30.00,NNE,22,2.5,2.5,67,0.00,,---,0.00,VWS V14.01,2013-03-26 14:00:00,
2013-03-26 10:01:00,36.7,26.8,30.00,NNE,22,2.5,2.5,67,0.00,,---,0.00,VWS V14.01,2013-03-26 14:01:00,
2013-03-26 10:02:00,33.6,26.2,29.97,NNE,22,2.5,2.5,74,0.00,,---,0.00,VWS V14.01,2013-03-26 14:02:00,
2013-03-26 10:03:00,36.7,26.4,30.00,NNE,22,2.5,2.5,66,0.00,,---,0.00,VWS V14.01,2013-03-26 14:03:00,
2013-03-26 10:04:00,36.7,26.4,30.00,NNE,22,2.5,2.5,66,0.00,,---,0.00,VWS V14.01,2013-03-26 14:04:00,
2013-03-26 10:05:00,36.7,26.4,30.00,NNE,22,2.5,2.5,66,0.00,,---,0.00,VWS V14.01,2013-03-26 14:05:00,
2013-03-26 10:06:00,36.7,26.4,29.97,NNE,22,2.5,2.5,66,0.00,,---,0.00,VWS V14.01,2013-03-26 14:06:00,
2013-03-26 10:07:00,33.8,26.1,29.97,NNE,22,2.5,2.5,73,0.00,,---,0.00,VWS V14.01,2013-03-26 14:07:00,
2013-03-26 10:08:00,36.9,26.2,29.97,NNE,22,2.5,2.5,65,0.00,,---,0.00,VWS V14.01,2013-03-26 14:08:00,
2013-03-26 10:09:00,36.9,26.2,29.97,NNE,22,2.5,2.5,65,0.00,,---,0.00,VWS V14.01,2013-03-26 14:09:00,
2013-03-26 10:10:00,37.0,26.4,29.97,NNE,22,2.5,2.5,65,0.00,,---,0.00,VWS V14.01,2013-03-26 14:10:00,
2013-03-26 10:11:00,37.0,26.4,29.97,NNE,22,2.5,2.5,65,0.00,,---,0.00,VWS V14.01,2013-03-26 14:11:00,
2013-03-26 10:12:00,34.0,26.2,29.97,NNE,22,2.5,2.5,73,0.00,,---,0.00,VWS V14.01,2013-03-26 14:12:00,
2013-03-26 10:13:00,37.0,26.0,29.97,NNE,22,2.5,2.5,64,0.00,,---,0.00,VWS V14.01,2013-03-26 14:13:00,
2013-03-26 10:14:00,37.0,26.0,29.97,NNE,22,2.5,2.5,64,0.00,,---,0.00,VWS V14.01,2013-03-26 14:14:00,
2013-03-26 10:15:00,37.2,26.2,29.97,NNE,22,2.5,2.5,64,0.00,,---,0.00,VWS V14.01,2013-03-26 14:15:00,
2013-03-26 10:16:00,37.2,25.8,29.97,NNE,22,2.5,2.5,63,0.00,,---,0.00,VWS V14.01,2013-03-26 14:16:00,
2013-03-26 10:17:00,34.3,26.3,29.97,NNE,22,2.5,2.5,72,0.00,,---,0.00,VWS V14.01,2013-03-26 14:17:00,
2013-03-26 10:18:00,37.4,26.0,29.97,NNE,22,2.5,2.5,63,0.00,,---,0.00,VWS V14.01,2013-03-26 14:18:00,
2013-03-26 10:19:00,37.4,25.6,29.97,NNE,22,2.5,2.5,62,0.00,,---,0.00,VWS V14.01,2013-03-26 14:19:00,
2013-03-26 10:20:00,37.4,25.6,29.97,NNE,22,2.5,2.5,62,0.00,,---,0.00,VWS V14.01,2013-03-26 14:20:00,
2013-03-26 10:21:00,37.4,25.6,29.97,NNE,22,2.5,2.5,62,0.00,,---,0.00,VWS V14.01,2013-03-26 14:21:00,
2013-03-26 10:22:00,34.7,26.6,29.97,NNE,22,2.5,2.5,72,0.00,,---,0.00,VWS V14.01,2013-03-26 14:22:00,
2013-03-26 10:23:00,37.6,25.8,29.97,NNE,22,2.5,2.5,62,0.00,,---,0.00,VWS V14.01,2013-03-26 14:23:00,
2013-03-26 10:24:00,37.6,25.8,29.97,NNE,22,2.5,2.5,62,0.00,,---,0.00,VWS V14.01,2013-03-26 14:24:00,
2013-03-26 10:25:00,37.8,25.9,29.97,NNE,22,2.5,2.5,62,0.00,,---,0.00,VWS V14.01,2013-03-26 14:25:00,
2013-03-26 10:26:00,37.8,25.1,29.97,NNE,22,2.5,2.5,60,0.00,,---,0.00,VWS V14.01,2013-03-26 14:26:00,
2013-03-26 10:27:00,35.2,26.8,29.97,NNE,22,2.5,2.5,71,0.00,,---,0.00,VWS V14.01,2013-03-26 14:27:00,
2013-03-26 10:28:00,37.9,25.3,29.97,NNE,22,2.5,2.5,60,0.00,,---,0.00,VWS V14.01,2013-03-26 14:28:00,
2013-03-26 10:29:00,37.9,25.3,29.97,NNE,22,2.5,2.5,60,0.00,,---,0.00,VWS V14.01,2013-03-26 14:29:00,
2013-03-26 10:30:00,38.1,25.5,29.97,NNE,22,2.5,2.5,60,0.00,,---,0.00,VWS V14.01,2013-03-26 14:30:00,
2013-03-26 10:31:00,38.1,25.5,29.97,NNE,22,2.5,2.5,60,0.00,,---,0.00,VWS V14.01,2013-03-26 14:31:00,
2013-03-26 10:32:00,35.4,27.0,29.97,NNE,22,2.5,2.5,71,0.00,,---,0.00,VWS V14.01,2013-03-26 14:32:00,
2013-03-26 10:33:00,38.5,26.2,29.97,NNE,22,2.5,2.5,61,0.00,,---,0.00,VWS V14.01,2013-03-26 14:33:00,
2013-03-26 10:34:00,38.7,26.4,29.97,NNE,22,2.5,2.5,61,0.00,,---,0.00,VWS V14.01,2013-03-26 14:34:00,
2013-03-26 10:35:00,38.7,26.4,29.97,NNE,22,2.5,2.5,61,0.00,,---,0.00,VWS V14.01,2013-03-26 14:35:00,
2013-03-26 10:36:00,38.5,25.0,30.00,NNE,22,2.5,2.5,58,0.00,,---,0.00,VWS V14.01,2013-03-26 14:36:00,
2013-03-26 10:37:00,35.6,26.5,29.97,NNE,22,2.5,2.5,69,0.00,,---,0.00,VWS V14.01,2013-03-26 14:37:00,
2013-03-26 10:38:00,38.7,24.8,30.00,NNE,22,2.5,2.5,57,0.00,,---,0.00,VWS V14.01,2013-03-26 14:38:00,
2013-03-26 10:39:00,38.7,25.2,30.00,NNE,22,2.5,2.5,58,0.00,,---,0.00,VWS V14.01,2013-03-26 14:39:00,
2013-03-26 10:40:00,38.7,24.8,30.00,NNE,22,2.5,2.5,57,0.00,,---,0.00,VWS V14.01,2013-03-26 14:40:00,
2013-03-26 10:41:00,38.7,24.3,30.00,NNE,22,2.5,2.5,56,0.00,,---,0.00,VWS V14.01,2013-03-26 14:41:00,
2013-03-26 10:42:00,35.8,26.3,29.97,NNE,22,2.5,2.5,68,0.00,,---,0.00,VWS V14.01,2013-03-26 14:42:00,
2013-03-26 10:43:00,38.7,24.3,30.00,NNE,22,2.5,2.5,56,0.00,,---,0.00,VWS V14.01,2013-03-26 14:43:00,
2013-03-26 10:44:00,38.7,23.9,30.00,NNE,22,2.5,2.5,55,0.00,,---,0.00,VWS V14.01,2013-03-26 14:44:00,
2013-03-26 10:45:00,38.8,24.1,30.00,NNE,22,2.5,2.5,55,0.00,,---,0.00,VWS V14.01,2013-03-26 14:45:00,
2013-03-26 10:46:00,39.0,24.7,30.00,NNE,22,2.5,2.5,56,0.00,,---,0.00,VWS V14.01,2013-03-26 14:46:00,
2013-03-26 10:47:00,36.1,26.3,30.00,NNE,22,2.5,2.5,67,0.00,,---,0.00,VWS V14.01,2013-03-26 14:47:00,
2013-03-26 10:48:00,39.2,24.8,30.00,NNE,22,2.5,2.5,56,0.00,,---,0.00,VWS V14.01,2013-03-26 14:48:00,
2013-03-26 10:49:00,39.4,24.6,30.00,NNE,22,2.5,2.5,55,0.00,,---,0.00,VWS V14.01,2013-03-26 14:49:00,
2013-03-26 10:50:00,39.4,24.6,30.00,NNE,22,2.5,2.5,55,0.00,,---,0.00,VWS V14.01,2013-03-26 14:50:00,
2013-03-26 10:51:00,39.4,24.6,30.00,NNE,22,2.5,2.5,55,0.00,,---,0.00,VWS V14.01,2013-03-26 14:51:00,
2013-03-26 10:52:00,36.5,26.6,30.00,NNE,22,2.5,2.5,67,0.00,,---,0.00,VWS V14.01,2013-03-26 14:52:00,
2013-03-26 10:54:00,39.6,24.7,30.00,NNE,22,2.5,2.5,55,0.00,,---,0.00,VWS V14.01,2013-03-26 14:54:00,
2013-03-26 10:55:00,39.6,24.3,30.00,NNE,22,2.5,2.5,54,0.00,,---,0.00,VWS V14.01,2013-03-26 14:55:00,
2013-03-26 10:56:00,39.4,24.1,30.00,NNE,22,2.5,2.5,54,0.00,,---,0.00,VWS V14.01,2013-03-26 14:56:00,
2013-03-26 10:57:00,36.7,26.4,30.00,NNE,22,2.5,2.5,66,0.00,,---,0.00,VWS V14.01,2013-03-26 14:57:00,
2013-03-26 10:58:00,39.6,24.3,30.00,NNE,22,2.5,2.5,54,0.00,,---,0.00,VWS V14.01,2013-03-26 14:58:00,
2013-03-26 11:02:00,36.9,26.2,29.97,NNE,22,2.5,2.5,65,0.00,,---,0.00,VWS V14.01,2013-03-26 15:02:00,
2013-03-26 11:03:00,39.9,24.2,30.00,NNE,22,2.5,2.5,53,0.00,,---,0.00,VWS V14.01,2013-03-26 15:03:00,
2013-03-26 11:04:00,39.9,24.2,30.00,NNE,22,2.5,2.5,53,0.00,,---,0.00,VWS V14.01,2013-03-26 15:04:00,
2013-03-26 11:05:00,40.1,24.8,30.00,NNE,22,2.5,2.5,54,0.00,,---,0.00,VWS V14.01,2013-03-26 15:05:00,
2013-03-26 11:06:00,40.5,25.1,30.00,NNE,22,2.5,2.5,54,0.00,,---,0.00,VWS V14.01,2013-03-26 15:06:00,
2013-03-26 11:07:00,37.0,26.0,29.97,NNE,22,2.5,2.5,64,0.00,,---,0.00,VWS V14.01,2013-03-26 15:07:00,
2013-03-26 11:08:00,41.0,25.6,30.00,NNE,22,2.5,2.5,54,0.00,,---,0.00,VWS V14.01,2013-03-26 15:08:00,
2013-03-26 11:09:00,41.0,25.6,30.00,NNE,22,2.5,2.5,54,0.00,,---,0.00,VWS V14.01,2013-03-26 15:09:00,
2013-03-26 11:10:00,40.8,25.0,30.00,NNE,22,2.5,2.5,53,0.00,,---,0.00,VWS V14.01,2013-03-26 15:10:00,
2013-03-26 11:11:00,41.0,24.7,30.00,NNE,22,2.5,2.5,52,0.00,,---,0.00,VWS V14.01,2013-03-26 15:11:00,
2013-03-26 11:12:00,37.4,25.6,29.97,NNE,22,2.5,2.5,62,0.00,,---,0.00,VWS V14.01,2013-03-26 15:12:00,
2013-03-26 11:13:00,41.0,24.7,30.00,NNE,22,2.5,2.5,52,0.00,,---,0.00,VWS V14.01,2013-03-26 15:13:00,
2013-03-26 11:14:00,41.0,24.3,30.00,NNE,22,2.5,2.5,51,0.00,,---,0.00,VWS V14.01,2013-03-26 15:14:00,
2013-03-26 11:15:00,40.6,23.9,30.00,NNE,22,2.5,2.5,51,0.00,,---,0.00,VWS V14.01,2013-03-26 15:15:00,
2013-03-26 11:16:00,40.8,24.6,30.00,NNE,22,2.5,2.5,52,0.00,,---,0.00,VWS V14.01,2013-03-26 15:16:00,
2013-03-26 11:17:00,37.6,25.8,29.97,NNE,22,2.5,2.5,62,0.00,,---,0.00,VWS V14.01,2013-03-26 15:17:00,
2013-03-26 11:18:00,41.0,24.7,30.00,NNE,22,2.5,2.5,52,0.00,,---,0.00,VWS V14.01,2013-03-26 15:18:00,
2013-03-26 11:19:00,41.0,24.7,30.00,NNE,22,2.5,2.5,52,0.00,,---,0.00,VWS V14.01,2013-03-26 15:19:00,
2013-03-26 11:20:00,41.0,24.7,30.00,NNE,22,2.5,2.5,52,0.00,,---,0.00,VWS V14.01,2013-03-26 15:20:00,
2013-03-26 11:21:00,41.0,24.7,30.00,NNE,22,2.5,2.5,52,0.00,,---,0.00,VWS V14.01,2013-03-26 15:21:00,
2013-03-26 11:22:00,37.9,25.3,29.97,NNE,22,2.5,2.5,60,0.00,,---,0.00,VWS V14.01,2013-03-26 15:22:00,
2013-03-26 11:23:00,41.0,24.7,30.00,NNE,22,2.5,2.5,52,0.00,,---,0.00,VWS V14.01,2013-03-26 15:23:00,
2013-03-26 11:24:00,41.0,24.7,30.00,NNE,22,2.5,2.5,52,0.00,,---,0.00,VWS V14.01,2013-03-26 15:24:00,
2013-03-26 11:25:00,41.2,25.4,30.00,NNE,22,2.5,2.5,53,0.00,,---,0.00,VWS V14.01,2013-03-26 15:25:00,
2013-03-26 11:26:00,41.5,25.7,30.00,NNE,22,2.5,2.5,53,0.00,,---,0.00,VWS V14.01,2013-03-26 15:26:00,
2013-03-26 11:27:00,38.7,26.4,29.97,NNE,22,2.5,2.5,61,0.00,,---,0.00,VWS V14.01,2013-03-26 15:27:00,
2013-03-26 11:28:00,41.5,25.7,30.00,NNE,22,2.5,2.5,53,0.00,,---,0.00,VWS V14.01,2013-03-26 15:28:00,
2013-03-26 11:29:00,41.9,25.6,30.00,NNE,22,2.5,2.5,52,0.00,,---,0.00,VWS V14.01,2013-03-26 15:29:00,
2013-03-26 11:30:00,41.9,25.6,30.00,NNE,22,2.5,2.5,52,0.00,,---,0.00,VWS V14.01,2013-03-26 15:30:00,
2013-03-26 11:31:00,42.1,26.2,30.00,NNE,22,2.5,2.5,53,0.00,,---,0.00,VWS V14.01,2013-03-26 15:31:00,
2013-03-26 11:32:00,38.7,25.2,30.00,NNE,22,2.5,2.5,58,0.00,,---,0.00,VWS V14.01,2013-03-26 15:32:00,
2013-03-26 11:33:00,42.1,25.7,30.00,NNE,22,2.5,2.5,52,0.00,,---,0.00,VWS V14.01,2013-03-26 15:33:00,
2013-03-26 11:34:00,41.9,25.1,30.00,NNE,22,2.5,2.5,51,0.00,,---,0.00,VWS V14.01,2013-03-26 15:34:00,
2013-03-26 11:35:00,41.7,24.9,30.00,NNE,22,2.5,2.5,51,0.00,,---,0.00,VWS V14.01,2013-03-26 15:35:00,
2013-03-26 11:36:00,41.7,24.9,30.00,NNE,22,2.5,2.5,51,0.00,,---,0.00,VWS V14.01,2013-03-26 15:36:00,
2013-03-26 11:37:00,38.7,23.9,30.00,NNE,22,2.5,2.5,55,0.00,,---,0.00,VWS V14.01,2013-03-26 15:37:00,
2013-03-26 11:41:00,41.0,23.8,30.00,NNE,22,2.5,2.5,50,0.00,,---,0.00,VWS V14.01,2013-03-26 15:41:00,
2013-03-26 11:42:00,39.4,24.6,30.00,NNE,22,2.5,2.5,55,0.00,,---,0.00,VWS V14.01,2013-03-26 15:42:00,
2013-03-26 11:43:00,41.9,24.6,30.00,NNE,22,2.5,2.5,50,0.00,,---,0.00,VWS V14.01,2013-03-26 15:43:00,
2013-03-26 11:44:00,42.6,25.8,30.00,NNE,22,2.5,2.5,51,0.00,,---,0.00,VWS V14.01,2013-03-26 15:44:00,
2013-03-26 11:45:00,43.9,26.9,30.00,NNE,22,2.5,2.5,51,0.00,,---,0.00,VWS V14.01,2013-03-26 15:45:00,
2013-03-26 11:46:00,44.2,27.3,30.00,NNE,22,2.5,2.5,51,0.00,,---,0.00,VWS V14.01,2013-03-26 15:46:00,
2013-03-26 11:47:00,39.6,24.7,30.00,NNE,22,2.5,2.5,55,0.00,,---,0.00,VWS V14.01,2013-03-26 15:47:00,
2013-03-26 11:50:00,45.5,28.4,30.00,NNE,22,2.5,2.5,51,0.00,,---,0.00,VWS V14.01,2013-03-26 15:50:00,
2013-03-26 11:51:00,45.1,27.6,29.97,NNE,22,2.5,2.5,50,0.00,,---,0.00,VWS V14.01,2013-03-26 15:51:00,
2013-03-26 11:52:00,39.7,24.5,30.00,NNE,22,2.5,2.5,54,0.00,,---,0.00,VWS V14.01,2013-03-26 15:52:00,
2013-03-26 11:53:00,44.2,26.3,29.97,NNE,22,2.5,2.5,49,0.00,,---,0.00,VWS V14.01,2013-03-26 15:53:00,
2013-03-26 11:54:00,43.7,25.8,29.97,NNE,22,2.5,2.5,49,0.00,,---,0.00,VWS V14.01,2013-03-26 15:54:00,
2013-03-26 11:55:00,43.7,25.3,29.97,NNE,22,2.5,2.5,48,0.00,,---,0.00,VWS V14.01,2013-03-26 15:55:00,
2013-03-26 11:56:00,44.2,25.8,29.97,NNE,22,2.5,2.5,48,0.00,,---,0.00,VWS V14.01,2013-03-26 15:56:00,
2013-03-26 11:57:00,40.1,24.8,30.00,NNE,22,2.5,2.5,54,0.00,,---,0.00,VWS V14.01,2013-03-26 15:57:00,
2013-03-26 11:58:00,43.9,25.0,29.97,NNE,22,2.5,2.5,47,0.00,,---,0.00,VWS V14.01,2013-03-26 15:58:00,
2013-03-26 12:00:00,43.2,23.8,29.97,NNE,22,2.5,2.5,46,0.00,,---,0.00,VWS V14.01,2013-03-26 16:00:00,
2013-03-26 12:01:00,42.4,23.1,29.97,NNE,22,2.5,2.5,46,0.00,,---,0.00,VWS V14.01,2013-03-26 16:01:00,
2013-03-26 12:02:00,41.0,25.6,30.00,NNE,22,2.5,2.5,54,0.00,,---,0.00,VWS V14.01,2013-03-26 16:02:00,
2013-03-26 12:03:00,41.7,23.0,29.97,NNE,22,2.5,2.5,47,0.00,,---,0.00,VWS V14.01,2013-03-26 16:03:00,
2013-03-26 12:04:00,41.7,23.0,29.97,NNE,22,2.5,2.5,47,0.00,,---,0.00,VWS V14.01,2013-03-26 16:04:00,
2013-03-26 12:05:00,41.5,22.8,29.97,NNE,22,2.5,2.5,47,0.00,,---,0.00,VWS V14.01,2013-03-26 16:05:00,
2013-03-26 12:06:00,41.4,22.7,29.97,NNE,22,2.5,2.5,47,0.00,,---,0.00,VWS V14.01,2013-03-26 16:06:00,
2013-03-26 12:07:00,40.8,24.6,30.00,NNE,22,2.5,2.5,52,0.00,,---,0.00,VWS V14.01,2013-03-26 16:07:00,
2013-03-26 12:08:00,41.0,22.3,29.97,NNE,22,2.5,2.5,47,0.00,,---,0.00,VWS V14.01,2013-03-26 16:08:00,
2013-03-26 12:09:00,40.8,22.7,29.97,NNE,22,2.5,2.5,48,0.00,,---,0.00,VWS V14.01,2013-03-26 16:09:00,
2013-03-26 12:10:00,40.8,22.7,29.97,NNE,22,2.5,2.5,48,0.00,,---,0.00,VWS V14.01,2013-03-26 16:10:00,
2013-03-26 12:11:00,40.6,22.5,29.97,NNE,22,2.5,2.5,48,0.00,,---,0.00,VWS V14.01,2013-03-26 16:11:00,
2013-03-26 12:12:00,41.0,24.7,30.00,NNE,22,2.5,2.5,52,0.00,,---,0.00,VWS V14.01,2013-03-26 16:12:00,
2013-03-26 12:13:00,40.6,22.5,29.97,NNE,22,2.5,2.5,48,0.00,,---,0.00,VWS V14.01,2013-03-26 16:13:00,
2013-03-26 12:14:00,40.6,22.5,29.97,NNE,22,2.5,2.5,48,0.00,,---,0.00,VWS V14.01,2013-03-26 16:14:00,
2013-03-26 12:15:00,40.5,22.3,29.97,NNE,22,2.5,2.5,48,0.00,,---,0.00,VWS V14.01,2013-03-26 16:15:00,
2013-03-26 12:16:00,40.5,22.8,29.97,NNE,22,2.5,2.5,49,0.00,,---,0.00,VWS V14.01,2013-03-26 16:16:00,
2013-03-26 12:17:00,41.0,24.7,30.00,NNE,22,2.5,2.5,52,0.00,,---,0.00,VWS V14.01,2013-03-26 16:17:00,
2013-03-26 12:18:00,40.5,22.8,29.97,NNE,22,2.5,2.5,49,0.00,,---,0.00,VWS V14.01,2013-03-26 16:18:00,
2013-03-26 12:19:00,40.5,22.8,29.97,NNE,22,2.5,2.5,49,0.00,,---,0.00,VWS V14.01,2013-03-26 16:19:00,
2013-03-26 12:20:00,40.5,22.8,29.97,NNE,22,2.5,2.5,49,0.00,,---,0.00,VWS V14.01,2013-03-26 16:20:00,
2013-03-26 12:21:00,40.3,22.7,30.00,NNE,22,2.5,2.5,49,0.00,,---,0.00,VWS V14.01,2013-03-26 16:21:00,
2013-03-26 12:22:00,41.9,25.6,30.00,NNE,22,2.5,2.5,52,0.00,,---,0.00,VWS V14.01,2013-03-26 16:22:00,
2013-03-26 12:23:00,39.9,22.3,30.00,NNE,22,2.5,2.5,49,0.00,,---,0.00,VWS V14.01,2013-03-26 16:23:00,
2013-03-26 12:24:00,39.9,22.3,30.00,NNE,22,2.5,2.5,49,0.00,,---,0.00,VWS V14.01,2013-03-26 16:24:00,
2013-03-26 12:25:00,39.9,22.3,30.00,NNE,22,2.5,2.5,49,0.00,,---,0.00,VWS V14.01,2013-03-26 16:25:00,
2013-03-26 12:26:00,39.7,22.2,30.00,NNE,22,2.5,2.5,49,0.00,,---,0.00,VWS V14.01,2013-03-26 16:26:00,
2013-03-26 12:27:00,41.9,25.1,30.00,NNE,22,2.5,2.5,51,0.00,,---,0.00,VWS V14.01,2013-03-26 16:27:00,
2013-03-26 12:28:00,39.7,22.2,30.00,NNE,22,2.5,2.5,49,0.00,,---,0.00,VWS V14.01,2013-03-26 16:28:00,
2013-03-26 12:29:00,39.6,22.0,30.00,NNE,22,2.5,2.5,49,0.00,,---,0.00,VWS V14.01,2013-03-26 16:29:00,
2013-03-26 12:30:00,39.6,22.5,30.00,NNE,22,2.5,2.5,50,0.00,,---,0.00,VWS V14.01,2013-03-26 16:30:00,
2013-03-26 12:31:00,39.6,22.0,30.00,NNE,22,2.5,2.5,49,0.00,,---,0.00,VWS V14.01,2013-03-26 16:31:00,
2013-03-26 12:32:00,41.2,24.0,30.00,NNE,22,2.5,2.5,50,0.00,,---,0.00,VWS V14.01,2013-03-26 16:32:00,
2013-03-26 12:33:00,39.4,22.3,30.00,NNE,22,2.5,2.5,50,0.00,,---,0.00,VWS V14.01,2013-03-26 16:33:00,
2013-03-26 12:34:00,39.6,22.5,30.00,NNE,22,2.5,2.5,50,0.00,,---,0.00,VWS V14.01,2013-03-26 16:34:00,
2013-03-26 12:35:00,39.6,22.5,30.00,NNE,22,2.5,2.5,50,0.00,,---,0.00,VWS V14.01,2013-03-26 16:35:00,
2013-03-26 12:36:00,39.6,22.5,29.97,NNE,22,2.5,2.5,50,0.00,,---,0.00,VWS V14.01,2013-03-26 16:36:00,
2013-03-26 12:37:00,43.2,26.3,30.00,NNE,22,2.5,2.5,51,0.00,,---,0.00,VWS V14.01,2013-03-26 16:37:00,
2013-03-26 12:38:00,39.6,22.9,29.97,NNE,22,2.5,2.5,51,0.00,,---,0.00,VWS V14.01,2013-03-26 16:38:00,
2013-03-26 12:39:00,39.7,23.1,29.97,NNE,22,2.5,2.5,51,0.00,,---,0.00,VWS V14.01,2013-03-26 16:39:00,
2013-03-26 12:40:00,39.7,23.1,29.97,NNE,22,2.5,2.5,51,0.00,,---,0.00,VWS V14.01,2013-03-26 16:40:00,
2013-03-26 12:41:00,39.7,23.1,29.97,NNE,22,2.5,2.5,51,0.00,,---,0.00,VWS V14.01,2013-03-26 16:41:00,
2013-03-26 12:42:00,45.3,27.8,30.00,NNE,22,2.5,2.5,50,0.00,,---,0.00,VWS V14.01,2013-03-26 16:42:00,
2013-03-26 12:43:00,39.7,23.1,29.97,NNE,22,2.5,2.5,51,0.00,,---,0.00,VWS V14.01,2013-03-26 16:43:00,
2013-03-26 12:44:00,39.7,23.1,29.97,NNE,22,2.5,2.5,51,0.00,,---,0.00,VWS V14.01,2013-03-26 16:44:00,
2013-03-26 12:45:00,39.7,23.1,29.97,NNE,22,2.5,2.5,51,0.00,,---,0.00,VWS V14.01,2013-03-26 16:45:00,
2013-03-26 12:46:00,40.1,23.9,29.97,NNE,22,2.5,2.5,52,0.00,,---,0.00,VWS V14.01,2013-03-26 16:46:00,
2013-03-26 12:47:00,43.7,25.8,29.97,NNE,22,2.5,2.5,49,0.00,,---,0.00,VWS V14.01,2013-03-26 16:47:00,
2013-03-26 12:48:00,40.1,23.4,29.97,NNE,22,2.5,2.5,51,0.00,,---,0.00,VWS V14.01,2013-03-26 16:48:00,
2013-03-26 12:50:00,40.3,23.6,29.97,NNE,22,2.5,2.5,51,0.00,,---,0.00,VWS V14.01,2013-03-26 16:50:00,
2013-03-26 12:51:00,40.3,23.6,30.00,NNE,22,2.5,2.5,51,0.00,,---,0.00,VWS V14.01,2013-03-26 16:51:00,
2013-03-26 12:52:00,43.2,23.8,29.97,NNE,22,2.5,2.5,46,0.00,,---,0.00,VWS V14.01,2013-03-26 16:52:00,
2013-03-26 12:53:00,40.5,23.8,30.00,NNE,22,2.5,2.5,51,0.00,,---,0.00,VWS V14.01,2013-03-26 16:53:00,
2013-03-26 12:54:00,40.5,23.8,30.00,NNE,22,2.5,2.5,51,0.00,,---,0.00,VWS V14.01,2013-03-26 16:54:00,
2013-03-26 12:55:00,40.6,23.9,30.00,NNE,22,2.5,2.5,51,0.00,,---,0.00,VWS V14.01,2013-03-26 16:55:00,
2013-03-26 12:56:00,40.6,23.9,30.00,NNE,22,2.5,2.5,51,0.00,,---,0.00,VWS V14.01,2013-03-26 16:56:00,
2013-03-26 12:57:00,41.7,23.0,29.97,NNE,22,2.5,2.5,47,0.00,,---,0.00,VWS V14.01,2013-03-26 16:57:00,
2013-03-26 12:58:00,40.6,23.9,30.00,NNE,22,2.5,2.5,51,0.00,,---,0.00,VWS V14.01,2013-03-26 16:58:00,
2013-03-26 12:59:00,40.6,23.9,30.00,NNE,22,2.5,2.5,51,0.00,,---,0.00,VWS V14.01,2013-03-26 16:59:00,
2013-03-26 13:00:00,40.6,23.9,30.00,NNE,22,2.5,2.5,51,0.00,,---,0.00,VWS V14.01,2013-03-26 17:00:00,
2013-03-26 13:01:00,40.8,24.1,30.00,NNE,22,2.5,2.5,51,0.00,,---,0.00,VWS V14.01,2013-03-26 17:01:00,
2013-03-26 13:02:00,40.8,24.1,30.00,NNE,22,2.5,2.5,51,0.00,,---,0.00,VWS V14.01,2013-03-26 17:02:00,
2013-03-26 13:03:00,40.8,22.7,29.97,NNE,22,2.5,2.5,48,0.00,,---,0.00,VWS V14.01,2013-03-26 17:03:00,
2013-03-26 13:04:00,41.0,24.3,30.00,NNE,22,2.5,2.5,51,0.00,,---,0.00,VWS V14.01,2013-03-26 17:04:00,
2013-03-26 13:05:00,41.0,24.3,30.00,NNE,22,2.5,2.5,51,0.00,,---,0.00,VWS V14.01,2013-03-26 17:05:00,
2013-03-26 13:06:00,41.2,24.4,29.97,NNE,22,2.5,2.5,51,0.00,,---,0.00,VWS V14.01,2013-03-26 17:06:00,
2013-03-26 13:07:00,40.5,22.3,29.97,NNE,22,2.5,2.5,48,0.00,,---,0.00,VWS V14.01,2013-03-26 17:07:00,
2013-03-26 13:08:00,41.2,24.0,29.97,NNE,22,2.5,2.5,50,0.00,,---,0.00,VWS V14.01,2013-03-26 17:08:00,
2013-03-26 13:10:00,41.2,24.0,29.97,NNE,22,2.5,2.5,50,0.00,,---,0.00,VWS V14.01,2013-03-26 17:10:00,
2013-03-26 13:11:00,41.2,24.0,29.97,NNE,22,2.5,2.5,50,0.00,,---,0.00,VWS V14.01,2013-03-26 17:11:00,
2013-03-26 13:12:00,40.5,22.8,29.97,NNE,22,2.5,2.5,49,0.00,,---,0.00,VWS V14.01,2013-03-26 17:12:00,
2013-03-26 13:13:00,41.2,24.0,29.97,NNE,22,2.5,2.5,50,0.00,,---,0.00,VWS V14.01,2013-03-26 17:13:00,
2013-03-26 13:14:00,41.2,24.0,29.97,NNE,22,2.5,2.5,50,0.00,,---,0.00,VWS V14.01,2013-03-26 17:14:00,
2013-03-26 13:15:00,41.2,24.0,29.97,NNE,22,2.5,2.5,50,0.00,,---,0.00,VWS V14.01,2013-03-26 17:15:00,
2013-03-26 13:16:00,41.0,23.8,29.97,NNE,22,2.5,2.5,50,0.00,,---,0.00,VWS V14.01,2013-03-26 17:16:00,
2013-03-26 13:17:00,39.9,22.3,30.00,NNE,22,2.5,2.5,49,0.00,,---,0.00,VWS V14.01,2013-03-26 17:17:00,
2013-03-26 13:18:00,40.6,23.5,29.97,NNE,22,2.5,2.5,50,0.00,,---,0.00,VWS V14.01,2013-03-26 17:18:00,
2013-03-26 13:19:00,40.5,22.8,29.97,NNE,22,2.5,2.5,49,0.00,,---,0.00,VWS V14.01,2013-03-26 17:19:00,
2013-03-26 13:20:00,40.5,22.8,29.97,NNE,22,2.5,2.5,49,0.00,,---,0.00,VWS V14.01,2013-03-26 17:20:00,
2013-03-26 13:21:00,40.1,22.5,30.00,NNE,22,2.5,2.5,49,0.00,,---,0.00,VWS V14.01,2013-03-26 17:21:00,
2013-03-26 13:22:00,39.6,22.5,30.00,NNE,22,2.5,2.5,50,0.00,,---,0.00,VWS V14.01,2013-03-26 17:22:00,
2013-03-26 13:23:00,39.6,21.0,30.00,NNE,22,2.5,2.5,47,0.00,,---,0.00,VWS V14.01,2013-03-26 17:23:00,
2013-03-26 13:24:00,39.4,21.3,30.00,NNE,22,2.5,2.5,48,0.00,,---,0.00,VWS V14.01,2013-03-26 17:24:00,
2013-03-26 13:25:00,39.4,21.3,30.00,NNE,22,2.5,2.5,48,0.00,,---,0.00,VWS V14.01,2013-03-26 17:25:00,
2013-03-26 13:26:00,39.4,21.3,30.00,NNE,22,2.5,2.5,48,0.00,,---,0.00,VWS V14.01,2013-03-26 17:26:00,
2013-03-26 13:27:00,39.6,22.5,30.00,NNE,22,2.5,2.5,50,0.00,,---,0.00,VWS V14.01,2013-03-26 17:27:00,
2013-03-26 13:28:00,39.2,21.7,30.00,NNE,22,2.5,2.5,49,0.00,,---,0.00,VWS V14.01,2013-03-26 17:28:00,
2013-03-26 13:29:00,39.0,21.5,30.00,NNE,22,2.5,2.5,49,0.00,,---,0.00,VWS V14.01,2013-03-26 17:29:00,
2013-03-26 13:30:00,39.0,21.5,30.00,NNE,22,2.5,2.5,49,0.00,,---,0.00,VWS V14.01,2013-03-26 17:30:00,
2013-03-26 13:31:00,38.8,21.8,30.00,NNE,22,2.5,2.5,50,0.00,,---,0.00,VWS V14.01,2013-03-26 17:31:00,
2013-03-26 13:32:00,39.7,23.1,29.97,NNE,22,2.5,2.5,51,0.00,,---,0.00,VWS V14.01,2013-03-26 17:32:00,
2013-03-26 13:33:00,38.8,21.8,30.00,NNE,22,2.5,2.5,50,0.00,,---,0.00,VWS V14.01,2013-03-26 17:33:00,
2013-03-26 13:34:00,38.8,21.8,30.00,NNE,22,2.5,2.5,50,0.00,,---,0.00,VWS V14.01,2013-03-26 17:34:00,
2013-03-26 13:35:00,38.8,21.8,30.00,NNE,22,2.5,2.5,50,0.00,,---,0.00,VWS V14.01,2013-03-26 17:35:00,
2013-03-26 13:36:00,39.0,22.0,29.97,NNE,22,2.5,2.5,50,0.00,,---,0.00,VWS V14.01,2013-03-26 17:36:00,
2013-03-26 13:37:00,39.7,23.1,29.97,NNE,22,2.5,2.5,51,0.00,,---,0.00,VWS V14.01,2013-03-26 17:37:00,
2013-03-26 13:38:00,39.2,22.1,29.97,NNE,22,2.5,2.5,50,0.00,,---,0.00,VWS V14.01,2013-03-26 17:38:00,
2013-03-26 13:39:00,39.4,22.3,29.97,NNE,22,2.5,2.5,50,0.00,,---,0.00,VWS V14.01,2013-03-26 17:39:00,
2013-03-26 13:40:00,39.4,22.8,29.97,NNE,22,2.5,2.5,51,0.00,,---,0.00,VWS V14.01,2013-03-26 17:40:00,
2013-03-26 13:41:00,39.6,22.9,29.97,NNE,22,2.5,2.5,51,0.00,,---,0.00,VWS V14.01,2013-03-26 17:41:00,
2013-03-26 13:42:00,40.3,23.6,29.97,NNE,22,2.5,2.5,51,0.00,,---,0.00,VWS V14.01,2013-03-26 17:42:00,
2013-03-26 13:43:00,39.7,23.1,29.97,NNE,22,2.5,2.5,51,0.00,,---,0.00,VWS V14.01,2013-03-26 17:43:00,
2013-03-26 13:44:00,39.9,23.3,29.97,NNE,22,2.5,2.5,51,0.00,,---,0.00,VWS V14.01,2013-03-26 17:44:00,
2013-03-26 13:45:00,39.9,23.3,29.97,NNE,22,2.5,2.5,51,0.00,,---,0.00,VWS V14.01,2013-03-26 17:45:00,
2013-03-26 13:46:00,39.9,23.3,29.97,NNE,22,2.5,2.5,51,0.00,,---,0.00,VWS V14.01,2013-03-26 17:46:00,
2013-03-26 13:47:00,40.5,23.8,30.00,NNE,22,2.5,2.5,51,0.00,,---,0.00,VWS V14.01,2013-03-26 17:47:00,
2013-03-26 13:48:00,39.9,23.3,29.97,NNE,22,2.5,2.5,51,0.00,,---,0.00,VWS V14.01,2013-03-26 17:48:00,
2013-03-26 13:49:00,39.9,22.8,29.97,NNE,22,2.5,2.5,50,0.00,,---,0.00,VWS V14.01,2013-03-26 17:49:00,
2013-03-26 13:50:00,39.9,22.8,29.97,NNE,22,2.5,2.5,50,0.00,,---,0.00,VWS V14.01,2013-03-26 17:50:00,
2013-03-26 13:51:00,39.9,22.8,30.00,NNE,22,2.5,2.5,50,0.00,,---,0.00,VWS V14.01,2013-03-26 17:51:00,
2013-03-26 13:52:00,40.6,23.9,30.00,NNE,22,2.5,2.5,51,0.00,,---,0.00,VWS V14.01,2013-03-26 17:52:00,
2013-03-26 13:55:00,39.9,22.8,30.00,NNE,22,2.5,2.5,50,0.00,,---,0.00,VWS V14.01,2013-03-26 17:55:00,
2013-03-26 13:56:00,39.9,22.8,30.00,NNE,22,2.5,2.5,50,0.00,,---,0.00,VWS V14.01,2013-03-26 17:56:00,
2013-03-26 13:57:00,41.0,24.3,30.00,NNE,22,2.5,2.5,51,0.00,,---,0.00,VWS V14.01,2013-03-26 17:57:00,
2013-03-26 13:58:00,39.9,22.8,30.00,NNE,22,2.5,2.5,50,0.00,,---,0.00,VWS V14.01,2013-03-26 17:58:00,
2013-03-26 13:59:00,39.9,22.3,30.00,NNE,22,2.5,2.5,49,0.00,,---,0.00,VWS V14.01,2013-03-26 17:59:00,
2013-03-26 14:00:00,39.9,22.3,30.00,NNE,22,2.5,2.5,49,0.00,,---,0.00,VWS V14.01,2013-03-26 18:00:00,
2013-03-26 14:01:00,39.9,22.3,30.00,NNE,22,2.5,2.5,49,0.00,,---,0.00,VWS V14.01,2013-03-26 18:01:00,
2013-03-26 14:02:00,41.2,24.0,29.97,NNE,22,2.5,2.5,50,0.00,,---,0.00,VWS V14.01,2013-03-26 18:02:00,
2013-03-26 14:03:00,39.9,22.3,30.00,NNE,22,2.5,2.5,49,0.00,,---,0.00,VWS V14.01,2013-03-26 18:03:00,
2013-03-26 14:04:00,39.9,22.3,30.00,NNE,22,2.5,2.5,49,0.00,,---,0.00,VWS V14.01,2013-03-26 18:04:00,
2013-03-26 14:05:00,39.9,22.3,30.00,NNE,22,2.5,2.5,49,0.00,,---,0.00,VWS V14.01,2013-03-26 18:05:00,
2013-03-26 14:06:00,39.9,21.8,30.00,NNE,22,2.5,2.5,48,0.00,,---,0.00,VWS V14.01,2013-03-26 18:06:00,
2013-03-26 14:07:00,39.9,21.8,30.00,NNE,22,2.5,2.5,48,0.00,,---,0.00,VWS V14.01,2013-03-26 18:07:00,
2013-03-26 14:08:00,41.2,24.0,29.97,NNE,22,2.5,2.5,50,0.00,,---,0.00,VWS V14.01,2013-03-26 18:08:00,
2013-03-26 14:09:00,39.9,21.8,30.00,NNE,22,2.5,2.5,48,0.00,,---,0.00,VWS V14.01,2013-03-26 18:09:00,
2013-03-26 14:10:00,39.7,21.7,30.00,NNE,22,2.5,2.5,48,0.00,,---,0.00,VWS V14.01,2013-03-26 18:10:00,
2013-03-26 14:11:00,39.9,21.8,30.00,NNE,22,2.5,2.5,48,0.00,,---,0.00,VWS V14.01,2013-03-26 18:11:00,
2013-03-26 14:12:00,39.9,21.8,30.00,NNE,22,2.5,2.5,48,0.00,,---,0.00,VWS V14.01,2013-03-26 18:12:00,
2013-03-26 14:13:00,40.5,22.8,29.97,NNE,22,2.5,2.5,49,0.00,,---,0.00,VWS V14.01,2013-03-26 18:13:00,
2013-03-26 14:14:00,39.9,21.8,30.00,NNE,22,2.5,2.5,48,0.00,,---,0.00,VWS V14.01,2013-03-26 18:14:00,
2013-03-26 14:16:00,39.9,21.8,30.00,NNE,22,2.5,2.5,48,0.00,,---,0.00,VWS V14.01,2013-03-26 18:16:00,
2013-03-26 14:17:00,39.9,21.8,30.00,NNE,22,2.5,2.5,48,0.00,,---,0.00,VWS V14.01,2013-03-26 18:17:00,
2013-03-26 14:18:00,39.4,21.3,30.00,NNE,22,2.5,2.5,48,0.00,,---,0.00,VWS V14.01,2013-03-26 18:18:00,
2013-03-26 14:19:00,39.7,21.2,30.00,NNE,22,2.5,2.5,47,0.00,,---,0.00,VWS V14.01,2013-03-26 18:19:00,
2013-03-26 14:20:00,39.7,21.7,30.00,NNE,22,2.5,2.5,48,0.00,,---,0.00,VWS V14.01,2013-03-26 18:20:00,
2013-03-26 14:21:00,39.7,21.7,29.97,NNE,22,2.5,2.5,48,0.00,,---,0.00,VWS V14.01,2013-03-26 18:21:00,
2013-03-26 14:22:00,39.7,21.7,29.97,NNE,22,2.5,2.5,48,0.00,,---,0.00,VWS V14.01,2013-03-26 18:22:00,
2013-03-26 14:23:00,39.0,21.5,30.00,NNE,22,2.5,2.5,49,0.00,,---,0.00,VWS V14.01,2013-03-26 18:23:00,
2013-03-26 14:24:00,39.4,20.8,29.97,NNE,22,2.5,2.5,47,0.00,,---,0.00,VWS V14.01,2013-03-26 18:24:00,
2013-03-26 14:25:00,39.2,21.7,29.97,NNE,22,2.5,2.5,49,0.00,,---,0.00,VWS V14.01,2013-03-26 18:25:00,
2013-03-26 14:26:00,38.8,21.3,29.97,NNE,22,2.5,2.5,49,0.00,,---,0.00,VWS V14.01,2013-03-26 18:26:00,
2013-03-26 14:27:00,38.7,21.6,29.97,NNE,22,2.5,2.5,50,0.00,,---,0.00,VWS V14.01,2013-03-26 18:27:00,
2013-03-26 14:28:00,38.8,21.8,30.00,NNE,22,2.5,2.5,50,0.00,,---,0.00,VWS V14.01,2013-03-26 18:28:00,
2013-03-26 14:29:00,38.1,22.1,29.97,NNE,22,2.5,2.5,52,0.00,,---,0.00,VWS V14.01,2013-03-26 18:29:00,
2013-03-26 14:30:00,37.8,22.2,29.97,NNE,22,2.5,2.5,53,0.00,,---,0.00,VWS V14.01,2013-03-26 18:30:00,
2013-03-26 14:31:00,37.6,22.0,29.97,NNE,22,2.5,2.5,53,0.00,,---,0.00,VWS V14.01,2013-03-26 18:31:00,
2013-03-26 14:32:00,37.0,22.4,29.97,NNE,22,2.5,2.5,55,0.00,,---,0.00,VWS V14.01,2013-03-26 18:32:00,
2013-03-26 14:33:00,39.4,22.3,29.97,NNE,22,2.5,2.5,50,0.00,,---,0.00,VWS V14.01,2013-03-26 18:33:00,
2013-03-26 14:34:00,36.7,22.5,29.97,NNE,22,2.5,2.5,56,0.00,,---,0.00,VWS V14.01,2013-03-26 18:34:00,
2013-03-26 14:35:00,36.5,22.3,29.97,NNE,22,2.5,2.5,56,0.00,,---,0.00,VWS V14.01,2013-03-26 18:35:00,
2013-03-26 14:36:00,36.3,22.1,30.00,NNE,22,2.5,2.5,56,0.00,,---,0.00,VWS V14.01,2013-03-26 18:36:00,
2013-03-26 14:37:00,36.1,22.4,30.00,NNE,22,2.5,2.5,57,0.00,,---,0.00,VWS V14.01,2013-03-26 18:37:00,
2013-03-26 14:38:00,39.9,23.3,29.97,NNE,22,2.5,2.5,51,0.00,,---,0.00,VWS V14.01,2013-03-26 18:38:00,
2013-03-26 14:39:00,35.8,22.9,30.00,NNE,22,2.5,2.5,59,0.00,,---,0.00,VWS V14.01,2013-03-26 18:39:00,
2013-03-26 14:40:00,35.6,22.7,30.00,NNE,22,2.5,2.5,59,0.00,,---,0.00,VWS V14.01,2013-03-26 18:40:00,
2013-03-26 14:41:00,35.4,22.9,30.00,NNE,22,2.5,2.5,60,0.00,,---,0.00,VWS V14.01,2013-03-26 18:41:00,
2013-03-26 14:42:00,35.4,23.7,30.00,NNE,22,2.5,2.5,62,0.00,,---,0.00,VWS V14.01,2013-03-26 18:42:00,
2013-03-26 14:43:00,39.9,22.8,29.97,NNE,22,2.5,2.5,50,0.00,,---,0.00,VWS V14.01,2013-03-26 18:43:00,
2013-03-26 14:44:00,35.2,23.5,30.00,NNE,22,2.5,2.5,62,0.00,,---,0.00,VWS V14.01,2013-03-26 18:44:00,
2013-03-26 14:45:00,35.2,23.5,30.00,NNE,22,2.5,2.5,62,0.00,,---,0.00,VWS V14.01,2013-03-26 18:45:00,
2013-03-26 14:46:00,35.2,23.5,30.00,NNE,22,2.5,2.5,62,0.00,,---,0.00,VWS V14.01,2013-03-26 18:46:00,
2013-03-26 14:47:00,34.9,24.3,30.00,NNE,22,2.5,2.5,65,0.00,,---,0.00,VWS V14.01,2013-03-26 18:47:00,
2013-03-26 14:48:00,39.9,22.8,30.00,NNE,22,2.5,2.5,50,0.00,,---,0.00,VWS V14.01,2013-03-26 18:48:00,
2013-03-26 14:49:00,34.9,25.0,30.00,NNE,22,2.5,2.5,67,0.00,,---,0.00,VWS V14.01,2013-03-26 18:49:00,
2013-03-26 14:50:00,34.9,25.0,30.00,NNE,22,2.5,2.5,67,0.00,,---,0.00,VWS V14.01,2013-03-26 18:50:00,
2013-03-26 14:51:00,34.9,24.7,30.00,NNE,22,2.5,2.5,66,0.00,,---,0.00,VWS V14.01,2013-03-26 18:51:00,
2013-03-26 14:52:00,34.9,24.7,30.00,NNE,22,2.5,2.5,66,0.00,,---,0.00,VWS V14.01,2013-03-26 18:52:00,
2013-03-26 14:53:00,39.9,22.3,30.00,NNE,22,2.5,2.5,49,0.00,,---,0.00,VWS V14.01,2013-03-26 18:53:00,
2013-03-26 14:54:00,34.9,24.7,30.00,NNE,22,2.5,2.5,66,0.00,,---,0.00,VWS V14.01,2013-03-26 18:54:00,
2013-03-26 14:55:00,34.9,24.7,30.00,NNE,22,2.5,2.5,66,0.00,,---,0.00,VWS V14.01,2013-03-26 18:55:00,
2013-03-26 14:56:00,34.9,24.7,30.00,NNE,22,2.5,2.5,66,0.00,,---,0.00,VWS V14.01,2013-03-26 18:56:00,
2013-03-26 14:57:00,35.1,24.9,30.00,NNE,22,2.5,2.5,66,0.00,,---,0.00,VWS V14.01,2013-03-26 18:57:00,
2013-03-26 14:58:00,39.9,22.3,30.00,NNE,22,2.5,2.5,49,0.00,,---,0.00,VWS V14.01,2013-03-26 18:58:00,
2013-03-26 14:59:00,35.1,24.5,30.00,NNE,22,2.5,2.5,65,0.00,,---,0.00,VWS V14.01,2013-03-26 18:59:00,
2013-03-26 15:00:00,35.2,24.7,30.00,NNE,22,2.5,2.5,65,0.00,,---,0.00,VWS V14.01,2013-03-26 19:00:00,
2013-03-26 15:01:00,35.2,24.7,30.00,NNE,22,2.5,2.5,65,0.00,,---,0.00,VWS V14.01,2013-03-26 19:01:00,
2013-03-26 15:02:00,35.4,24.8,30.00,NNE,22,2.5,2.5,65,0.00,,---,0.00,VWS V14.01,2013-03-26 19:02:00,
2013-03-26 15:03:00,39.9,21.8,30.00,NNE,22,2.5,2.5,48,0.00,,---,0.00,VWS V14.01,2013-03-26 19:03:00,
2013-03-26 15:04:00,35.6,25.0,30.00,NNE,22,2.5,2.5,65,0.00,,---,0.00,VWS V14.01,2013-03-26 19:04:00,
2013-03-26 15:05:00,35.6,24.6,30.00,NNE,22,2.5,2.5,64,0.00,,---,0.00,VWS V14.01,2013-03-26 19:05:00,
2013-03-26 15:06:00,35.8,24.8,30.00,NNE,22,2.5,2.5,64,0.00,,---,0.00,VWS V14.01,2013-03-26 19:06:00,
2013-03-26 15:07:00,35.8,24.8,30.00,NNE,22,2.5,2.5,64,0.00,,---,0.00,VWS V14.01,2013-03-26 19:07:00,
2013-03-26 15:08:00,39.9,21.3,30.00,NNE,22,2.5,2.5,47,0.00,,---,0.00,VWS V14.01,2013-03-26 19:08:00,
2013-03-26 15:09:00,36.1,25.1,30.00,NNE,22,2.5,2.5,64,0.00,,---,0.00,VWS V14.01,2013-03-26 19:09:00,
2013-03-26 15:10:00,36.1,25.1,30.00,NNE,22,2.5,2.5,64,0.00,,---,0.00,VWS V14.01,2013-03-26 19:10:00,
2013-03-26 15:11:00,36.3,25.3,30.00,NNE,22,2.5,2.5,64,0.00,,---,0.00,VWS V14.01,2013-03-26 19:11:00,
2013-03-26 15:12:00,36.3,25.3,30.00,NNE,22,2.5,2.5,64,0.00,,---,0.00,VWS V14.01,2013-03-26 19:12:00,
2013-03-26 15:13:00,39.7,21.7,30.00,NNE,22,2.5,2.5,48,0.00,,---,0.00,VWS V14.01,2013-03-26 19:13:00,
2013-03-26 15:14:00,36.5,25.5,30.00,NNE,22,2.5,2.5,64,0.00,,---,0.00,VWS V14.01,2013-03-26 19:14:00,
2013-03-26 15:15:00,36.7,25.7,30.00,NNE,22,2.5,2.5,64,0.00,,---,0.00,VWS V14.01,2013-03-26 19:15:00,
2013-03-26 15:16:00,36.7,25.7,30.00,NNE,22,2.5,2.5,64,0.00,,---,0.00,VWS V14.01,2013-03-26 19:16:00,
2013-03-26 15:17:00,36.7,25.7,30.00,NNE,22,2.5,2.5,64,0.00,,---,0.00,VWS V14.01,2013-03-26 19:17:00,
2013-03-26 15:18:00,39.2,21.2,29.97,NNE,22,2.5,2.5,48,0.00,,---,0.00,VWS V14.01,2013-03-26 19:18:00,
2013-03-26 15:19:00,36.9,25.8,30.00,NNE,22,2.5,2.5,64,0.00,,---,0.00,VWS V14.01,2013-03-26 19:19:00,
2013-03-26 15:20:00,36.9,25.5,30.00,NNE,22,2.5,2.5,63,0.00,,---,0.00,VWS V14.01,2013-03-26 19:20:00,
2013-03-26 15:21:00,36.9,25.5,30.00,NNE,22,2.5,2.5,63,0.00,,---,0.00,VWS V14.01,2013-03-26 19:21:00,
2013-03-26 15:22:00,37.0,25.6,30.00,NNE,22,2.5,2.5,63,0.00,,---,0.00,VWS V14.01,2013-03-26 19:22:00,
2013-03-26 15:23:00,37.8,22.2,29.97,NNE,22,2.5,2.5,53,0.00,,---,0.00,VWS V14.01,2013-03-26 19:23:00,
2013-03-26 15:24:00,37.0,25.2,30.00,NNE,22,2.5,2.5,62,0.00,,---,0.00,VWS V14.01,2013-03-26 19:24:00,
2013-03-26 15:25:00,37.0,24.9,30.00,NNE,22,2.5,2.5,61,0.00,,---,0.00,VWS V14.01,2013-03-26 19:25:00,
2013-03-26 15:26:00,37.0,24.9,30.00,NNE,22,2.5,2.5,61,0.00,,---,0.00,VWS V14.01,2013-03-26 19:26:00,
2013-03-26 15:27:00,37.0,24.9,30.00,NNE,22,2.5,2.5,61,0.00,,---,0.00,VWS V14.01,2013-03-26 19:27:00,
2013-03-26 15:28:00,36.5,22.3,29.97,NNE,22,2.5,2.5,56,0.00,,---,0.00,VWS V14.01,2013-03-26 19:28:00,
2013-03-26 15:29:00,37.0,24.5,30.00,NNE,22,2.5,2.5,60,0.00,,---,0.00,VWS V14.01,2013-03-26 19:29:00,
2013-03-26 15:30:00,37.2,24.6,30.00,NNE,22,2.5,2.5,60,0.00,,---,0.00,VWS V14.01,2013-03-26 19:30:00,
2013-03-26 15:31:00,37.2,24.6,30.00,NNE,22,2.5,2.5,60,0.00,,---,0.00,VWS V14.01,2013-03-26 19:31:00,
2013-03-26 15:32:00,37.2,24.6,30.00,NNE,22,2.5,2.5,60,0.00,,---,0.00,VWS V14.01,2013-03-26 19:32:00,
2013-03-26 15:33:00,35.6,22.7,30.00,NNE,22,2.5,2.5,59,0.00,,---,0.00,VWS V14.01,2013-03-26 19:33:00,
2013-03-26 15:34:00,37.4,24.8,30.00,NNE,22,2.5,2.5,60,0.00,,---,0.00,VWS V14.01,2013-03-26 19:34:00,
2013-03-26 15:35:00,37.4,24.8,30.00,NNE,22,2.5,2.5,60,0.00,,---,0.00,VWS V14.01,2013-03-26 19:35:00,
2013-03-26 15:36:00,37.6,25.0,30.00,NNE,22,2.5,2.5,60,0.00,,---,0.00,VWS V14.01,2013-03-26 19:36:00,
2013-03-26 15:37:00,37.6,25.0,30.00,NNE,22,2.5,2.5,60,0.00,,---,0.00,VWS V14.01,2013-03-26 19:37:00,
2013-03-26 15:38:00,35.2,23.5,30.00,NNE,22,2.5,2.5,62,0.00,,---,0.00,VWS V14.01,2013-03-26 19:38:00,
2013-03-26 15:39:00,37.6,24.6,30.00,NNE,22,2.5,2.5,59,0.00,,---,0.00,VWS V14.01,2013-03-26 19:39:00,
2013-03-26 15:40:00,37.6,24.6,30.00,NNE,22,2.5,2.5,59,0.00,,---,0.00,VWS V14.01,2013-03-26 19:40:00,
2013-03-26 15:41:00,37.6,24.6,30.00,NNE,22,2.5,2.5,59,0.00,,---,0.00,VWS V14.01,2013-03-26 19:41:00,
2013-03-26 15:42:00,37.8,24.7,30.00,NNE,22,2.5,2.5,59,0.00,,---,0.00,VWS V14.01,2013-03-26 19:42:00,
2013-03-26 15:43:00,34.9,25.0,30.00,NNE,22,2.5,2.5,67,0.00,,---,0.00,VWS V14.01,2013-03-26 19:43:00,
2013-03-26 15:44:00,37.8,24.7,30.00,NNE,22,2.5,2.5,59,0.00,,---,0.00,VWS V14.01,2013-03-26 19:44:00,
2013-03-26 15:45:00,37.9,24.9,30.00,NNE,22,2.5,2.5,59,0.00,,---,0.00,VWS V14.01,2013-03-26 19:45:00,
2013-03-26 15:46:00,37.9,24.9,30.00,NNE,22,2.5,2.5,59,0.00,,---,0.00,VWS V14.01,2013-03-26 19:46:00,
2013-03-26 15:47:00,37.9,24.9,30.00,NNE,22,2.5,2.5,59,0.00,,---,0.00,VWS V14.01,2013-03-26 19:47:00,
2013-03-26 15:48:00,34.9,24.7,30.00,NNE,22,2.5,2.5,66,0.00,,---,0.00,VWS V14.01,2013-03-26 19:48:00,
2013-03-26 15:49:00,38.1,25.1,30.00,NNE,22,2.5,2.5,59,0.00,,---,0.00,VWS V14.01,2013-03-26 19:49:00,
2013-03-26 15:50:00,38.1,25.1,30.00,NNE,22,2.5,2.5,59,0.00,,---,0.00,VWS V14.01,2013-03-26 19:50:00,
2013-03-26 15:51:00,38.1,25.1,30.00,NNE,22,2.5,2.5,59,0.00,,---,0.00,VWS V14.01,2013-03-26 19:51:00,
2013-03-26 15:52:00,38.1,25.1,30.00,NNE,22,2.5,2.5,59,0.00,,---,0.00,VWS V14.01,2013-03-26 19:52:00,
2013-03-26 15:53:00,35.2,24.7,30.00,NNE,22,2.5,2.5,65,0.00,,---,0.00,VWS V14.01,2013-03-26 19:53:00,
2013-03-26 15:54:00,38.3,25.2,30.00,NNE,22,2.5,2.5,59,0.00,,---,0.00,VWS V14.01,2013-03-26 19:54:00,
2013-03-26 15:55:00,38.5,25.4,30.00,NNE,22,2.5,2.5,59,0.00,,---,0.00,VWS V14.01,2013-03-26 19:55:00,
2013-03-26 15:56:00,38.5,25.4,30.00,NNE,22,2.5,2.5,59,0.00,,---,0.00,VWS V14.01,2013-03-26 19:56:00,
2013-03-26 15:57:00,38.5,25.0,30.00,NNE,22,2.5,2.5,58,0.00,,---,0.00,VWS V14.01,2013-03-26 19:57:00,
2013-03-26 15:58:00,35.6,24.6,30.00,NNE,22,2.5,2.5,64,0.00,,---,0.00,VWS V14.01,2013-03-26 19:58:00,
2013-03-26 16:00:00,38.5,25.0,30.00,NNE,22,2.5,2.5,58,0.00,,---,0.00,VWS V14.01,2013-03-26 20:00:00,
2013-03-26 16:01:00,38.5,25.0,30.00,NNE,22,2.5,2.5,58,0.00,,---,0.00,VWS V14.01,2013-03-26 20:01:00,
2013-03-26 16:02:00,38.5,25.0,30.00,NNE,22,2.5,2.5,58,0.00,,---,0.00,VWS V14.01,2013-03-26 20:02:00,
2013-03-26 16:03:00,36.1,25.1,30.00,NNE,22,2.5,2.5,64,0.00,,---,0.00,VWS V14.01,2013-03-26 20:03:00,
2013-03-26 16:04:00,38.7,25.2,30.00,NNE,22,2.5,2.5,58,0.00,,---,0.00,VWS V14.01,2013-03-26 20:04:00,
2013-03-26 16:05:00,38.7,25.2,30.00,NNE,22,2.5,2.5,58,0.00,,---,0.00,VWS V14.01,2013-03-26 20:05:00,
2013-03-26 16:06:00,38.7,25.2,30.00,NNE,22,2.5,2.5,58,0.00,,---,0.00,VWS V14.01,2013-03-26 20:06:00,
2013-03-26 16:07:00,38.7,25.2,30.00,NNE,22,2.5,2.5,58,0.00,,---,0.00,VWS V14.01,2013-03-26 20:07:00,
2013-03-26 16:08:00,36.7,25.7,30.00,NNE,22,2.5,2.5,64,0.00,,---,0.00,VWS V14.01,2013-03-26 20:08:00,
2013-03-26 16:09:00,38.5,24.6,30.00,NNE,22,2.5,2.5,57,0.00,,---,0.00,VWS V14.01,2013-03-26 20:09:00,
2013-03-26 16:10:00,38.3,24.0,30.00,NNE,22,2.5,2.5,56,0.00,,---,0.00,VWS V14.01,2013-03-26 20:10:00,
2013-03-26 16:11:00,38.1,23.8,30.00,NNE,22,2.5,2.5,56,0.00,,---,0.00,VWS V14.01,2013-03-26 20:11:00,
2013-03-26 16:12:00,37.9,23.7,30.00,NNE,22,2.5,2.5,56,0.00,,---,0.00,VWS V14.01,2013-03-26 20:12:00,
2013-03-26 16:13:00,36.9,25.5,30.00,NNE,22,2.5,2.5,63,0.00,,---,0.00,VWS V14.01,2013-03-26 20:13:00,
2013-03-26 16:14:00,37.6,23.3,30.00,NNE,22,2.5,2.5,56,0.00,,---,0.00,VWS V14.01,2013-03-26 20:14:00,
2013-03-26 16:15:00,37.4,23.6,30.00,NNE,22,2.5,2.5,57,0.00,,---,0.00,VWS V14.01,2013-03-26 20:15:00,
2013-03-26 16:16:00,37.4,23.6,30.00,NNE,22,2.5,2.5,57,0.00,,---,0.00,VWS V14.01,2013-03-26 20:16:00,
2013-03-26 16:17:00,37.2,23.4,30.00,NNE,22,2.5,2.5,57,0.00,,---,0.00,VWS V14.01,2013-03-26 20:17:00,
2013-03-26 16:18:00,37.0,24.9,30.00,NNE,22,2.5,2.5,61,0.00,,---,0.00,VWS V14.01,2013-03-26 20:18:00,
2013-03-26 16:19:00,36.9,23.5,30.00,NNE,22,2.5,2.5,58,0.00,,---,0.00,VWS V14.01,2013-03-26 20:19:00,
2013-03-26 16:20:00,36.7,23.3,30.00,NNE,22,2.5,2.5,58,0.00,,---,0.00,VWS V14.01,2013-03-26 20:20:00,
2013-03-26 16:21:00,36.7,23.3,30.00,NNE,22,2.5,2.5,58,0.00,,---,0.00,VWS V14.01,2013-03-26 20:21:00,
2013-03-26 16:22:00,36.5,23.5,30.00,NNE,22,2.5,2.5,59,0.00,,---,0.00,VWS V14.01,2013-03-26 20:22:00,
2013-03-26 16:23:00,37.2,24.6,30.00,NNE,22,2.5,2.5,60,0.00,,---,0.00,VWS V14.01,2013-03-26 20:23:00,
2013-03-26 16:24:00,36.3,23.4,30.00,NNE,22,2.5,2.5,59,0.00,,---,0.00,VWS V14.01,2013-03-26 20:24:00,
2013-03-26 16:25:00,36.1,23.2,30.00,NNE,22,2.5,2.5,59,0.00,,---,0.00,VWS V14.01,2013-03-26 20:25:00,
2013-03-26 16:26:00,36.1,23.6,30.00,NNE,22,2.5,2.5,60,0.00,,---,0.00,VWS V14.01,2013-03-26 20:26:00,
2013-03-26 16:27:00,36.1,23.6,30.00,NNE,22,2.5,2.5,60,0.00,,---,0.00,VWS V14.01,2013-03-26 20:27:00,
2013-03-26 16:28:00,37.4,24.8,30.00,NNE,22,2.5,2.5,60,0.00,,---,0.00,VWS V14.01,2013-03-26 20:28:00,
2013-03-26 16:29:00,36.1,24.0,30.00,NNE,22,2.5,2.5,61,0.00,,---,0.00,VWS V14.01,2013-03-26 20:29:00,
2013-03-26 16:30:00,36.1,24.0,30.00,NNE,22,2.5,2.5,61,0.00,,---,0.00,VWS V14.01,2013-03-26 20:30:00,
2013-03-26 16:31:00,36.0,24.2,30.00,NNE,22,2.5,2.5,62,0.00,,---,0.00,VWS V14.01,2013-03-26 20:31:00,
2013-03-26 16:32:00,36.0,24.2,30.00,NNE,22,2.5,2.5,62,0.00,,---,0.00,VWS V14.01,2013-03-26 20:32:00,
2013-03-26 16:33:00,37.6,24.6,30.00,NNE,22,2.5,2.5,59,0.00,,---,0.00,VWS V14.01,2013-03-26 20:33:00,
2013-03-26 16:34:00,35.8,24.4,30.00,NNE,22,2.5,2.5,63,0.00,,---,0.00,VWS V14.01,2013-03-26 20:34:00,
2013-03-26 16:35:00,35.8,24.4,30.00,NNE,22,2.5,2.5,63,0.00,,---,0.00,VWS V14.01,2013-03-26 20:35:00,
2013-03-26 16:36:00,35.6,24.3,29.97,NNE,22,2.5,2.5,63,0.00,,---,0.00,VWS V14.01,2013-03-26 20:36:00,
2013-03-26 16:37:00,35.6,24.3,29.97,NNE,22,2.5,2.5,63,0.00,,---,0.00,VWS V14.01,2013-03-26 20:37:00,
2013-03-26 16:38:00,37.9,24.9,30.00,NNE,22,2.5,2.5,59,0.00,,---,0.00,VWS V14.01,2013-03-26 20:38:00,
2013-03-26 16:39:00,35.4,24.5,29.97,NNE,22,2.5,2.5,64,0.00,,---,0.00,VWS V14.01,2013-03-26 20:39:00,
2013-03-26 16:40:00,35.4,24.5,29.97,NNE,22,2.5,2.5,64,0.00,,---,0.00,VWS V14.01,2013-03-26 20:40:00,
2013-03-26 16:41:00,35.4,24.5,29.97,NNE,22,2.5,2.5,64,0.00,,---,0.00,VWS V14.01,2013-03-26 20:41:00,
2013-03-26 16:42:00,35.2,24.3,29.97,NNE,22,2.5,2.5,64,0.00,,---,0.00,VWS V14.01,2013-03-26 20:42:00,
2013-03-26 16:43:00,38.1,25.1,30.00,NNE,22,2.5,2.5,59,0.00,,---,0.00,VWS V14.01,2013-03-26 20:43:00,
2013-03-26 16:44:00,35.1,24.5,29.97,NNE,22,2.5,2.5,65,0.00,,---,0.00,VWS V14.01,2013-03-26 20:44:00,
2013-03-26 16:45:00,35.1,24.5,29.97,NNE,22,2.5,2.5,65,0.00,,---,0.00,VWS V14.01,2013-03-26 20:45:00,
2013-03-26 16:46:00,35.1,24.5,29.97,NNE,22,2.5,2.5,65,0.00,,---,0.00,VWS V14.01,2013-03-26 20:46:00,
2013-03-26 16:47:00,35.1,24.5,29.97,NNE,22,2.5,2.5,65,0.00,,---,0.00,VWS V14.01,2013-03-26 20:47:00,
2013-03-26 16:48:00,38.5,25.4,30.00,NNE,22,2.5,2.5,59,0.00,,---,0.00,VWS V14.01,2013-03-26 20:48:00,
2013-03-26 16:49:00,35.1,24.5,29.97,NNE,22,2.5,2.5,65,0.00,,---,0.00,VWS V14.01,2013-03-26 20:49:00,
2013-03-26 16:50:00,35.1,24.5,29.97,NNE,22,2.5,2.5,65,0.00,,---,0.00,VWS V14.01,2013-03-26 20:50:00,
2013-03-26 16:51:00,35.1,24.5,29.97,NNE,22,2.5,2.5,65,0.00,,---,0.00,VWS V14.01,2013-03-26 20:51:00,
2013-03-26 16:52:00,35.1,24.5,29.97,NNE,22,2.5,2.5,65,0.00,,---,0.00,VWS V14.01,2013-03-26 20:52:00,
2013-03-26 16:53:00,38.5,25.0,30.00,NNE,22,2.5,2.5,58,0.00,,---,0.00,VWS V14.01,2013-03-26 20:53:00,
2013-03-26 16:54:00,35.1,24.9,29.97,NNE,22,2.5,2.5,66,0.00,,---,0.00,VWS V14.01,2013-03-26 20:54:00,
2013-03-26 16:55:00,34.9,24.7,29.97,NNE,22,2.5,2.5,66,0.00,,---,0.00,VWS V14.01,2013-03-26 20:55:00,
2013-03-26 16:56:00,34.9,24.7,29.97,NNE,22,2.5,2.5,66,0.00,,---,0.00,VWS V14.01,2013-03-26 20:56:00,
2013-03-26 16:57:00,34.9,24.7,29.97,NNE,22,2.5,2.5,66,0.00,,---,0.00,VWS V14.01,2013-03-26 20:57:00,
2013-03-26 16:58:00,38.7,25.2,30.00,NNE,22,2.5,2.5,58,0.00,,---,0.00,VWS V14.01,2013-03-26 20:58:00,
2013-03-26 16:59:00,34.9,25.0,29.97,NNE,22,2.5,2.5,67,0.00,,---,0.00,VWS V14.01,2013-03-26 20:59:00,
2013-03-26 17:00:00,34.9,25.0,29.97,NNE,22,2.5,2.5,67,0.00,,---,0.00,VWS V14.01,2013-03-26 21:00:00,
2013-03-26 17:01:00,34.9,24.7,29.97,NNE,22,2.5,2.5,66,0.00,,---,0.00,VWS V14.01,2013-03-26 21:01:00,
2013-03-26 17:02:00,35.1,24.9,29.97,NNE,22,2.5,2.5,66,0.00,,---,0.00,VWS V14.01,2013-03-26 21:02:00,
2013-03-26 17:03:00,38.1,23.8,30.00,NNE,22,2.5,2.5,56,0.00,,---,0.00,VWS V14.01,2013-03-26 21:03:00,
2013-03-26 17:04:00,35.1,25.2,29.97,NNE,22,2.5,2.5,67,0.00,,---,0.00,VWS V14.01,2013-03-26 21:04:00,
2013-03-26 17:05:00,35.1,25.2,29.97,NNE,22,2.5,2.5,67,0.00,,---,0.00,VWS V14.01,2013-03-26 21:05:00,
2013-03-26 17:06:00,35.1,25.2,30.00,NNE,22,2.5,2.5,67,0.00,,---,0.00,VWS V14.01,2013-03-26 21:06:00,
2013-03-26 17:07:00,35.1,25.2,30.00,NNE,22,2.5,2.5,67,0.00,,---,0.00,VWS V14.01,2013-03-26 21:07:00,
2013-03-26 17:08:00,37.4,23.6,30.00,NNE,22,2.5,2.5,57,0.00,,---,0.00,VWS V14.01,2013-03-26 21:08:00,
2013-03-26 17:09:00,35.1,25.2,30.00,NNE,22,2.5,2.5,67,0.00,,---,0.00,VWS V14.01,2013-03-26 21:09:00,
2013-03-26 17:10:00,35.1,25.2,30.00,NNE,22,2.5,2.5,67,0.00,,---,0.00,VWS V14.01,2013-03-26 21:10:00,
2013-03-26 17:11:00,35.1,25.2,30.00,NNE,22,2.5,2.5,67,0.00,,---,0.00,VWS V14.01,2013-03-26 21:11:00,
2013-03-26 17:12:00,35.1,25.2,30.00,NNE,22,2.5,2.5,67,0.00,,---,0.00,VWS V14.01,2013-03-26 21:12:00,
2013-03-26 17:13:00,36.7,23.3,30.00,NNE,22,2.5,2.5,58,0.00,,---,0.00,VWS V14.01,2013-03-26 21:13:00,
2013-03-26 17:14:00,35.2,25.8,30.00,NNE,22,2.5,2.5,68,0.00,,---,0.00,VWS V14.01,2013-03-26 21:14:00,
2013-03-26 17:15:00,35.2,25.8,30.00,NNE,22,2.5,2.5,68,0.00,,---,0.00,VWS V14.01,2013-03-26 21:15:00,
2013-03-26 17:16:00,35.2,25.8,30.00,NNE,22,2.5,2.5,68,0.00,,---,0.00,VWS V14.01,2013-03-26 21:16:00,
2013-03-26 17:17:00,35.2,25.8,30.00,NNE,22,2.5,2.5,68,0.00,,---,0.00,VWS V14.01,2013-03-26 21:17:00,
2013-03-26 17:18:00,36.1,23.6,30.00,NNE,22,2.5,2.5,60,0.00,,---,0.00,VWS V14.01,2013-03-26 21:18:00,
2013-03-26 17:19:00,35.2,25.8,30.00,NNE,22,2.5,2.5,68,0.00,,---,0.00,VWS V14.01,2013-03-26 21:19:00,
2013-03-26 17:20:00,35.2,25.8,30.00,NNE,22,2.5,2.5,68,0.00,,---,0.00,VWS V14.01,2013-03-26 21:20:00,
2013-03-26 17:21:00,35.2,25.8,30.00,NNE,22,2.5,2.5,68,0.00,,---,0.00,VWS V14.01,2013-03-26 21:21:00,
2013-03-26 17:22:00,35.2,25.8,30.00,NNE,22,2.5,2.5,68,0.00,,---,0.00,VWS V14.01,2013-03-26 21:22:00,
2013-03-26 17:23:00,36.1,24.0,30.00,NNE,22,2.5,2.5,61,0.00,,---,0.00,VWS V14.01,2013-03-26 21:23:00,
2013-03-26 17:26:00,35.2,25.4,30.00,NNE,22,2.5,2.5,67,0.00,,---,0.00,VWS V14.01,2013-03-26 21:26:00,
2013-03-26 17:27:00,35.2,25.4,30.00,NNE,22,2.5,2.5,67,0.00,,---,0.00,VWS V14.01,2013-03-26 21:27:00,
2013-03-26 17:28:00,35.8,24.4,29.97,NNE,22,2.5,2.5,63,0.00,,---,0.00,VWS V14.01,2013-03-26 21:28:00,
2013-03-26 17:29:00,35.2,25.4,30.00,NNE,22,2.5,2.5,67,0.00,,---,0.00,VWS V14.01,2013-03-26 21:29:00,
2013-03-26 17:30:00,35.2,25.4,30.00,NNE,22,2.5,2.5,67,0.00,,---,0.00,VWS V14.01,2013-03-26 21:30:00,
2013-03-26 17:31:00,35.2,25.4,30.00,NNE,22,2.5,2.5,67,0.00,,---,0.00,VWS V14.01,2013-03-26 21:31:00,
2013-03-26 17:32:00,35.2,25.4,30.00,NNE,22,2.5,2.5,67,0.00,,---,0.00,VWS V14.01,2013-03-26 21:32:00,
2013-03-26 17:33:00,35.4,24.5,29.97,NNE,22,2.5,2.5,64,0.00,,---,0.00,VWS V14.01,2013-03-26 21:33:00,
2013-03-26 17:34:00,35.2,25.4,30.00,NNE,22,2.5,2.5,67,0.00,,---,0.00,VWS V14.01,2013-03-26 21:34:00,
2013-03-26 17:35:00,35.2,25.4,30.00,NNE,22,2.5,2.5,67,0.00,,---,0.00,VWS V14.01,2013-03-26 21:35:00,
2013-03-26 17:36:00,35.2,25.8,30.00,NNE,22,2.5,2.5,68,0.00,,---,0.00,VWS V14.01,2013-03-26 21:36:00,
2013-03-26 17:37:00,35.2,25.4,30.00,NNE,22,2.5,2.5,67,0.00,,---,0.00,VWS V14.01,2013-03-26 21:37:00,
2013-03-26 17:38:00,35.1,24.5,29.97,NNE,22,2.5,2.5,65,0.00,,---,0.00,VWS V14.01,2013-03-26 21:38:00,
2013-03-26 17:39:00,35.2,25.4,30.00,NNE,22,2.5,2.5,67,0.00,,---,0.00,VWS V14.01,2013-03-26 21:39:00,
2013-03-26 17:40:00,35.2,25.4,30.00,NNE,22,2.5,2.5,67,0.00,,---,0.00,VWS V14.01,2013-03-26 21:40:00,
2013-03-26 17:41:00,35.2,25.4,30.00,NNE,22,2.5,2.5,67,0.00,,---,0.00,VWS V14.01,2013-03-26 21:41:00,
2013-03-26 17:42:00,35.1,25.2,30.00,NNE,22,2.5,2.5,67,0.00,,---,0.00,VWS V14.01,2013-03-26 21:42:00,
2013-03-26 17:43:00,35.1,24.5,29.97,NNE,22,2.5,2.5,65,0.00,,---,0.00,VWS V14.01,2013-03-26 21:43:00,
2013-03-26 17:44:00,35.1,25.2,30.00,NNE,22,2.5,2.5,67,0.00,,---,0.00,VWS V14.01,2013-03-26 21:44:00,
2013-03-26 17:45:00,35.1,25.2,30.00,NNE,22,2.5,2.5,67,0.00,,---,0.00,VWS V14.01,2013-03-26 21:45:00,
2013-03-26 17:46:00,35.1,25.2,30.00,NNE,22,2.5,2.5,67,0.00,,---,0.00,VWS V14.01,2013-03-26 21:46:00,
2013-03-26 17:47:00,35.1,25.6,30.00,NNE,22,2.5,2.5,68,0.00,,---,0.00,VWS V14.01,2013-03-26 21:47:00,
2013-03-26 17:48:00,34.9,24.7,29.97,NNE,22,2.5,2.5,66,0.00,,---,0.00,VWS V14.01,2013-03-26 21:48:00,
2013-03-26 17:49:00,35.1,25.6,30.00,NNE,22,2.5,2.5,68,0.00,,---,0.00,VWS V14.01,2013-03-26 21:49:00,
2013-03-26 17:50:00,34.9,25.4,30.00,NNE,22,2.5,2.5,68,0.00,,---,0.00,VWS V14.01,2013-03-26 21:50:00,
2013-03-26 17:51:00,34.9,25.4,30.00,NNE,22,2.5,2.5,68,0.00,,---,0.00,VWS V14.01,2013-03-26 21:51:00,
2013-03-26 17:52:00,34.9,25.4,30.00,NNE,22,2.5,2.5,68,0.00,,---,0.00,VWS V14.01,2013-03-26 21:52:00,
2013-03-26 17:53:00,34.9,24.7,29.97,NNE,22,2.5,2.5,66,0.00,,---,0.00,VWS V14.01,2013-03-26 21:53:00,
2013-03-26 17:54:00,34.9,25.4,30.00,NNE,22,2.5,2.5,68,0.00,,---,0.00,VWS V14.01,2013-03-26 21:54:00,
2013-03-26 17:56:00,34.9,25.4,30.00,NNE,22,2.5,2.5,68,0.00,,---,0.00,VWS V14.01,2013-03-26 21:56:00,
2013-03-26 17:57:00,34.7,25.2,30.00,NNE,22,2.5,2.5,68,0.00,,---,0.00,VWS V14.01,2013-03-26 21:57:00,
2013-03-26 17:58:00,34.7,25.2,30.00,NNE,22,2.5,2.5,68,0.00,,---,0.00,VWS V14.01,2013-03-26 21:58:00,
2013-03-26 17:59:00,35.1,25.2,30.00,NNE,22,2.5,2.5,67,0.00,,---,0.00,VWS V14.01,2013-03-26 21:59:00,
2013-03-26 18:01:00,34.7,25.2,30.00,NNE,22,2.5,2.5,68,0.00,,---,0.00,VWS V14.01,2013-03-26 22:01:00,
2013-03-26 18:02:00,34.7,25.2,30.00,NNE,22,2.5,2.5,68,0.00,,---,0.00,VWS V14.01,2013-03-26 22:02:00,
2013-03-26 18:03:00,34.7,25.2,30.00,NNE,22,2.5,2.5,68,0.00,,---,0.00,VWS V14.01,2013-03-26 22:03:00,
2013-03-26 18:04:00,35.1,25.2,30.00,NNE,22,2.5,2.5,67,0.00,,---,0.00,VWS V14.01,2013-03-26 22:04:00,
2013-03-26 18:05:00,34.5,25.1,30.00,NNE,22,2.5,2.5,68,0.00,,---,0.00,VWS V14.01,2013-03-26 22:05:00,
2013-03-26 18:06:00,34.5,25.1,30.00,NNE,22,2.5,2.5,68,0.00,,---,0.00,VWS V14.01,2013-03-26 22:06:00,
2013-03-26 18:07:00,34.5,25.1,30.00,NNE,22,2.5,2.5,68,0.00,,---,0.00,VWS V14.01,2013-03-26 22:07:00,
2013-03-26 18:08:00,34.5,25.1,30.00,NNE,22,2.5,2.5,68,0.00,,---,0.00,VWS V14.01,2013-03-26 22:08:00,
2013-03-26 18:09:00,35.2,25.8,30.00,NNE,22,2.5,2.5,68,0.00,,---,0.00,VWS V14.01,2013-03-26 22:09:00,
2013-03-26 18:10:00,34.5,25.1,30.00,NNE,22,2.5,2.5,68,0.00,,---,0.00,VWS V14.01,2013-03-26 22:10:00,
2013-03-26 18:11:00,34.5,25.1,30.00,NNE,22,2.5,2.5,68,0.00,,---,0.00,VWS V14.01,2013-03-26 22:11:00,
2013-03-26 18:12:00,34.5,25.4,30.00,NNE,22,2.5,2.5,69,0.00,,---,0.00,VWS V14.01,2013-03-26 22:12:00,
2013-03-26 18:13:00,34.5,25.4,30.00,NNE,22,2.5,2.5,69,0.00,,---,0.00,VWS V14.01,2013-03-26 22:13:00,
2013-03-26 18:14:00,35.2,25.8,30.00,NNE,22,2.5,2.5,68,0.00,,---,0.00,VWS V14.01,2013-03-26 22:14:00,
2013-03-26 18:15:00,34.5,25.4,30.00,NNE,22,2.5,2.5,69,0.00,,---,0.00,VWS V14.01,2013-03-26 22:15:00,
2013-03-26 18:16:00,34.5,25.4,30.00,NNE,22,2.5,2.5,69,0.00,,---,0.00,VWS V14.01,2013-03-26 22:16:00,
2013-03-26 18:17:00,34.5,25.4,30.00,NNE,22,2.5,2.5,69,0.00,,---,0.00,VWS V14.01,2013-03-26 22:17:00,
2013-03-26 18:18:00,34.5,25.4,30.00,NNE,22,2.5,2.5,69,0.00,,---,0.00,VWS V14.01,2013-03-26 22:18:00,
2013-03-26 18:19:00,35.2,25.4,30.00,NNE,22,2.5,2.5,67,0.00,,---,0.00,VWS V14.01,2013-03-26 22:19:00,
2013-03-26 18:20:00,34.3,25.2,30.00,NNE,22,2.5,2.5,69,0.00,,---,0.00,VWS V14.01,2013-03-26 22:20:00,
2013-03-26 18:21:00,34.3,25.2,30.00,NNE,22,2.5,2.5,69,0.00,,---,0.00,VWS V14.01,2013-03-26 22:21:00,
2013-03-26 18:22:00,34.3,25.2,30.00,NNE,22,2.5,2.5,69,0.00,,---,0.00,VWS V14.01,2013-03-26 22:22:00,
2013-03-26 18:23:00,34.3,25.2,30.00,NNE,22,2.5,2.5,69,0.00,,---,0.00,VWS V14.01,2013-03-26 22:23:00,
2013-03-26 18:24:00,35.2,25.4,30.00,NNE,22,2.5,2.5,67,0.00,,---,0.00,VWS V14.01,2013-03-26 22:24:00,
2013-03-26 18:25:00,34.3,25.2,30.00,NNE,22,2.5,2.5,69,0.00,,---,0.00,VWS V14.01,2013-03-26 22:25:00,
2013-03-26 18:26:00,34.3,25.2,30.00,NNE,22,2.5,2.5,69,0.00,,---,0.00,VWS V14.01,2013-03-26 22:26:00,
2013-03-26 18:27:00,34.3,25.2,30.00,NNE,22,2.5,2.5,69,0.00,,---,0.00,VWS V14.01,2013-03-26 22:27:00,
2013-03-26 18:28:00,34.3,25.2,30.00,NNE,22,2.5,2.5,69,0.00,,---,0.00,VWS V14.01,2013-03-26 22:28:00,
2013-03-26 18:29:00,35.2,25.4,30.00,NNE,22,2.5,2.5,67,0.00,,---,0.00,VWS V14.01,2013-03-26 22:29:00,
2013-03-26 18:30:00,34.3,25.2,30.00,NNE,22,2.5,2.5,69,0.00,,---,0.00,VWS V14.01,2013-03-26 22:30:00,
2013-03-26 18:31:00,34.3,25.2,30.00,NNE,22,2.5,2.5,69,0.00,,---,0.00,VWS V14.01,2013-03-26 22:31:00,
2013-03-26 18:32:00,34.3,25.2,30.00,NNE,22,2.5,2.5,69,0.00,,---,0.00,VWS V14.01,2013-03-26 22:32:00,
2013-03-26 18:33:00,34.3,25.2,30.00,NNE,22,2.5,2.5,69,0.00,,---,0.00,VWS V14.01,2013-03-26 22:33:00,
2013-03-26 18:34:00,35.2,25.4,30.00,NNE,22,2.5,2.5,67,0.00,,---,0.00,VWS V14.01,2013-03-26 22:34:00,
2013-03-26 18:35:00,34.2,25.1,30.00,NNE,22,2.5,2.5,69,0.00,,---,0.00,VWS V14.01,2013-03-26 22:35:00,
2013-03-26 18:36:00,34.2,25.1,30.00,NNE,22,2.5,2.5,69,0.00,,---,0.00,VWS V14.01,2013-03-26 22:36:00,
2013-03-26 18:37:00,34.2,25.1,30.00,NNE,22,2.5,2.5,69,0.00,,---,0.00,VWS V14.01,2013-03-26 22:37:00,
2013-03-26 18:38:00,34.2,25.1,30.00,NNE,22,2.5,2.5,69,0.00,,---,0.00,VWS V14.01,2013-03-26 22:38:00,
2013-03-26 18:39:00,35.1,25.2,30.00,NNE,22,2.5,2.5,67,0.00,,---,0.00,VWS V14.01,2013-03-26 22:39:00,
2013-03-26 18:40:00,34.2,25.1,30.00,NNE,22,2.5,2.5,69,0.00,,---,0.00,VWS V14.01,2013-03-26 22:40:00,
2013-03-26 18:41:00,34.2,25.1,30.00,NNE,22,2.5,2.5,69,0.00,,---,0.00,VWS V14.01,2013-03-26 22:41:00,
2013-03-26 18:42:00,34.2,25.1,30.00,NNE,22,2.5,2.5,69,0.00,,---,0.00,VWS V14.01,2013-03-26 22:42:00,
2013-03-26 18:43:00,34.2,25.1,30.00,NNE,22,2.5,2.5,69,0.00,,---,0.00,VWS V14.01,2013-03-26 22:43:00,
2013-03-26 18:44:00,34.9,25.4,30.00,NNE,22,2.5,2.5,68,0.00,,---,0.00,VWS V14.01,2013-03-26 22:44:00,
2013-03-26 18:45:00,34.0,24.9,30.00,NNE,22,2.5,2.5,69,0.00,,---,0.00,VWS V14.01,2013-03-26 22:45:00,
2013-03-26 18:46:00,34.0,24.9,30.00,NNE,22,2.5,2.5,69,0.00,,---,0.00,VWS V14.01,2013-03-26 22:46:00,
2013-03-26 18:47:00,34.0,24.9,30.00,NNE,22,2.5,2.5,69,0.00,,---,0.00,VWS V14.01,2013-03-26 22:47:00,
2013-03-26 18:48:00,34.9,25.4,30.00,NNE,22,2.5,2.5,68,0.00,,---,0.00,VWS V14.01,2013-03-26 22:48:00,
2013-03-26 18:49:00,34.0,24.9,30.00,NNE,22,2.5,2.5,69,0.00,,---,0.00,VWS V14.01,2013-03-26 22:49:00,
2013-03-26 18:50:00,34.0,24.9,30.00,NNE,22,2.5,2.5,69,0.00,,---,0.00,VWS V14.01,2013-03-26 22:50:00,
2013-03-26 18:51:00,34.0,24.9,30.00,NNE,22,2.5,2.5,69,0.00,,---,0.00,VWS V14.01,2013-03-26 22:51:00,
2013-03-26 18:52:00,34.0,24.9,30.00,NNE,22,2.5,2.5,69,0.00,,---,0.00,VWS V14.01,2013-03-26 22:52:00,
2013-03-26 18:53:00,34.0,24.9,30.00,NNE,22,2.5,2.5,69,0.00,,---,0.00,VWS V14.01,2013-03-26 22:53:00,
2013-03-26 18:54:00,34.7,25.2,30.00,NNE,22,2.5,2.5,68,0.00,,---,0.00,VWS V14.01,2013-03-26 22:54:00,
2013-03-26 18:55:00,34.0,24.9,30.00,NNE,22,2.5,2.5,69,0.00,,---,0.00,VWS V14.01,2013-03-26 22:55:00,
2013-03-26 18:56:00,34.0,24.9,30.00,NNE,22,2.5,2.5,69,0.00,,---,0.00,VWS V14.01,2013-03-26 22:56:00,
2013-03-26 18:57:00,34.0,24.9,30.00,NNE,22,2.5,2.5,69,0.00,,---,0.00,VWS V14.01,2013-03-26 22:57:00,
2013-03-26 18:58:00,34.0,24.9,30.00,NNE,22,2.5,2.5,69,0.00,,---,0.00,VWS V14.01,2013-03-26 22:58:00,
2013-03-26 18:59:00,34.5,25.1,30.00,NNE,22,2.5,2.5,68,0.00,,---,0.00,VWS V14.01,2013-03-26 22:59:00,
2013-03-26 19:00:00,34.0,24.9,30.00,NNE,22,2.5,2.5,69,0.00,,---,0.00,VWS V14.01,2013-03-26 23:00:00,
2013-03-26 19:01:00,34.0,24.9,30.00,NNE,22,2.5,2.5,69,0.00,,---,0.00,VWS V14.01,2013-03-26 23:01:00,
2013-03-26 19:02:00,33.8,24.7,30.00,NNE,22,2.5,2.5,69,0.00,,---,0.00,VWS V14.01,2013-03-26 23:02:00,
2013-03-26 19:03:00,33.8,24.7,30.00,NNE,22,2.5,2.5,69,0.00,,---,0.00,VWS V14.01,2013-03-26 23:03:00,
2013-03-26 19:04:00,34.5,25.1,30.00,NNE,22,2.5,2.5,68,0.00,,---,0.00,VWS V14.01,2013-03-26 23:04:00,
2013-03-26 19:05:00,33.8,24.7,30.00,NNE,22,2.5,2.5,69,0.00,,---,0.00,VWS V14.01,2013-03-26 23:05:00,
2013-03-26 19:06:00,33.8,24.7,30.00,NNE,22,2.5,2.5,69,0.00,,---,0.00,VWS V14.01,2013-03-26 23:06:00,
2013-03-26 19:07:00,33.8,24.7,30.00,NNE,22,2.5,2.5,69,0.00,,---,0.00,VWS V14.01,2013-03-26 23:07:00,
2013-03-26 19:08:00,33.8,24.7,30.00,NNE,22,2.5,2.5,69,0.00,,---,0.00,VWS V14.01,2013-03-26 23:08:00,
2013-03-26 19:09:00,34.5,25.4,30.00,NNE,22,2.5,2.5,69,0.00,,---,0.00,VWS V14.01,2013-03-26 23:09:00,
2013-03-26 19:10:00,33.8,24.7,30.00,NNE,22,2.5,2.5,69,0.00,,---,0.00,VWS V14.01,2013-03-26 23:10:00,
2013-03-26 19:11:00,33.8,24.7,30.00,NNE,22,2.5,2.5,69,0.00,,---,0.00,VWS V14.01,2013-03-26 23:11:00,
2013-03-26 19:12:00,33.8,24.7,30.00,NNE,22,2.5,2.5,69,0.00,,---,0.00,VWS V14.01,2013-03-26 23:12:00,
2013-03-26 19:13:00,33.8,24.7,30.00,NNE,22,2.5,2.5,69,0.00,,---,0.00,VWS V14.01,2013-03-26 23:13:00,
2013-03-26 19:14:00,34.3,25.2,30.00,NNE,22,2.5,2.5,69,0.00,,---,0.00,VWS V14.01,2013-03-26 23:14:00,
2013-03-26 19:15:00,33.8,24.7,30.00,NNE,22,2.5,2.5,69,0.00,,---,0.00,VWS V14.01,2013-03-26 23:15:00,
2013-03-26 19:16:00,33.8,24.7,30.00,NNE,22,2.5,2.5,69,0.00,,---,0.00,VWS V14.01,2013-03-26 23:16:00,
2013-03-26 19:17:00,33.8,24.7,30.00,NNE,22,2.5,2.5,69,0.00,,---,0.00,VWS V14.01,2013-03-26 23:17:00,
2013-03-26 19:18:00,33.8,24.7,30.00,NNE,22,2.5,2.5,69,0.00,,---,0.00,VWS V14.01,2013-03-26 23:18:00,
2013-03-26 19:19:00,34.3,25.2,30.00,NNE,22,2.5,2.5,69,0.00,,---,0.00,VWS V14.01,2013-03-26 23:19:00,
2013-03-26 19:20:00,33.8,24.7,30.00,NNE,22,2.5,2.5,69,0.00,,---,0.00,VWS V14.01,2013-03-26 23:20:00,
2013-03-26 19:21:00,33.8,24.7,30.03,NNE,22,2.5,2.5,69,0.00,,---,0.00,VWS V14.01,2013-03-26 23:21:00,
2013-03-26 19:22:00,33.8,24.7,30.03,NNE,22,2.5,2.5,69,0.00,,---,0.00,VWS V14.01,2013-03-26 23:22:00,
2013-03-26 19:23:00,33.8,24.7,30.03,NNE,22,2.5,2.5,69,0.00,,---,0.00,VWS V14.01,2013-03-26 23:23:00,
2013-03-26 19:24:00,34.3,25.2,30.00,NNE,22,2.5,2.5,69,0.00,,---,0.00,VWS V14.01,2013-03-26 23:24:00,
2013-03-26 19:25:00,33.8,24.7,30.03,NNE,22,2.5,2.5,69,0.00,,---,0.00,VWS V14.01,2013-03-26 23:25:00,
2013-03-26 19:26:00,33.8,24.7,30.03,NNE,22,2.5,2.5,69,0.00,,---,0.00,VWS V14.01,2013-03-26 23:26:00,
2013-03-26 19:27:00,33.8,24.7,30.03,NNE,22,2.5,2.5,69,0.00,,---,0.00,VWS V14.01,2013-03-26 23:27:00,
2013-03-26 19:28:00,33.8,24.7,30.03,NNE,22,2.5,2.5,69,0.00,,---,0.00,VWS V14.01,2013-03-26 23:28:00,
2013-03-26 19:29:00,34.2,25.1,30.00,NNE,22,2.5,2.5,69,0.00,,---,0.00,VWS V14.01,2013-03-26 23:29:00,
2013-03-26 19:30:00,33.8,24.7,30.03,NNE,22,2.5,2.5,69,0.00,,---,0.00,VWS V14.01,2013-03-26 23:30:00,
2013-03-26 19:31:00,33.8,24.7,30.03,NNE,22,2.5,2.5,69,0.00,,---,0.00,VWS V14.01,2013-03-26 23:31:00,
2013-03-26 19:32:00,33.8,24.7,30.03,NNE,22,2.5,2.5,69,0.00,,---,0.00,VWS V14.01,2013-03-26 23:32:00,
2013-03-26 19:33:00,33.8,24.7,30.03,NNE,22,2.5,2.5,69,0.00,,---,0.00,VWS V14.01,2013-03-26 23:33:00,
2013-03-26 19:34:00,34.2,25.1,30.00,NNE,22,2.5,2.5,69,0.00,,---,0.00,VWS V14.01,2013-03-26 23:34:00,
2013-03-26 19:35:00,33.8,24.7,30.03,NNE,22,2.5,2.5,69,0.00,,---,0.00,VWS V14.01,2013-03-26 23:35:00,
2013-03-26 19:36:00,33.8,24.7,30.03,NNE,22,2.5,2.5,69,0.00,,---,0.00,VWS V14.01,2013-03-26 23:36:00,
2013-03-26 19:37:00,33.8,24.7,30.03,NNE,22,2.5,2.5,69,0.00,,---,0.00,VWS V14.01,2013-03-26 23:37:00,
2013-03-26 19:38:00,33.8,25.1,30.03,NNE,22,2.5,2.5,70,0.00,,---,0.00,VWS V14.01,2013-03-26 23:38:00,
2013-03-26 19:39:00,34.0,24.9,30.00,NNE,22,2.5,2.5,69,0.00,,---,0.00,VWS V14.01,2013-03-26 23:39:00,
2013-03-26 19:40:00,33.8,25.1,30.03,NNE,22,2.5,2.5,70,0.00,,---,0.00,VWS V14.01,2013-03-26 23:40:00,
2013-03-26 19:41:00,33.8,25.1,30.03,NNE,22,2.5,2.5,70,0.00,,---,0.00,VWS V14.01,2013-03-26 23:41:00,
2013-03-26 19:42:00,33.8,25.1,30.03,NNE,22,2.5,2.5,70,0.00,,---,0.00,VWS V14.01,2013-03-26 23:42:00,
2013-03-26 19:43:00,33.8,25.1,30.03,NNE,22,2.5,2.5,70,0.00,,---,0.00,VWS V14.01,2013-03-26 23:43:00,
2013-03-26 19:44:00,34.0,24.9,30.00,NNE,22,2.5,2.5,69,0.00,,---,0.00,VWS V14.01,2013-03-26 23:44:00,
2013-03-26 19:45:00,33.8,25.1,30.03,NNE,22,2.5,2.5,70,0.00,,---,0.00,VWS V14.01,2013-03-26 23:45:00,
2013-03-26 19:46:00,33.8,25.1,30.03,NNE,22,2.5,2.5,70,0.00,,---,0.00,VWS V14.01,2013-03-26 23:46:00,
2013-03-26 19:47:00,33.8,25.1,30.03,NNE,22,2.5,2.5,70,0.00,,---,0.00,VWS V14.01,2013-03-26 23:47:00,
2013-03-26 19:48:00,33.8,25.1,30.03,NNE,22,2.5,2.5,70,0.00,,---,0.00,VWS V14.01,2013-03-26 23:48:00,
2013-03-26 19:49:00,34.0,24.9,30.00,NNE,22,2.5,2.5,69,0.00,,---,0.00,VWS V14.01,2013-03-26 23:49:00,
2013-03-26 19:50:00,33.8,25.1,30.03,NNE,22,2.5,2.5,70,0.00,,---,0.00,VWS V14.01,2013-03-26 23:50:00,
2013-03-26 19:51:00,33.8,25.1,30.06,NNE,22,2.5,2.5,70,0.00,,---,0.00,VWS V14.01,2013-03-26 23:51:00,
2013-03-26 19:52:00,33.8,25.1,30.06,NNE,22,2.5,2.5,70,0.00,,---,0.00,VWS V14.01,2013-03-26 23:52:00,
2013-03-26 19:53:00,33.8,25.1,30.06,NNE,22,2.5,2.5,70,0.00,,---,0.00,VWS V14.01,2013-03-26 23:53:00,
2013-03-26 19:54:00,34.0,24.9,30.00,NNE,22,2.5,2.5,69,0.00,,---,0.00,VWS V14.01,2013-03-26 23:54:00,
2013-03-26 19:55:00,33.8,25.1,30.06,NNE,22,2.5,2.5,70,0.00,,---,0.00,VWS V14.01,2013-03-26 23:55:00,
2013-03-26 19:56:00,33.8,25.1,30.06,NNE,22,2.5,2.5,70,0.00,,---,0.00,VWS V14.01,2013-03-26 23:56:00,
2013-03-26 19:57:00,33.8,25.1,30.06,NNE,22,2.5,2.5,70,0.00,,---,0.00,VWS V14.01,2013-03-26 23:57:00,
2013-03-26 19:58:00,33.8,25.1,30.06,NNE,22,2.5,2.5,70,0.00,,---,0.00,VWS V14.01,2013-03-26 23:58:00,
2013-03-26 19:59:00,33.8,24.7,30.00,NNE,22,2.5,2.5,69,0.00,,---,0.00,VWS V14.01,2013-03-26 23:59:00,
2013-03-26 20:00:00,33.8,25.1,30.06,NNE,22,2.5,2.5,70,0.00,,---,0.00,VWS V14.01,2013-03-27 00:00:00,
2013-03-26 20:01:00,33.8,25.1,30.06,NNE,22,2.5,2.5,70,0.00,,---,0.00,VWS V14.01,2013-03-27 00:01:00,
2013-03-26 20:02:00,33.8,25.1,30.06,NNE,22,2.5,2.5,70,0.00,,---,0.00,VWS V14.01,2013-03-27 00:02:00,
2013-03-26 20:03:00,33.8,25.1,30.06,NNE,22,2.5,2.5,70,0.00,,---,0.00,VWS V14.01,2013-03-27 00:03:00,
2013-03-26 20:04:00,33.8,24.7,30.00,NNE,22,2.5,2.5,69,0.00,,---,0.00,VWS V14.01,2013-03-27 00:04:00,
2013-03-26 20:05:00,33.6,25.2,30.06,NNE,22,2.5,2.5,71,0.00,,---,0.00,VWS V14.01,2013-03-27 00:05:00,
2013-03-26 20:06:00,33.6,25.2,30.06,NNE,22,2.5,2.5,71,0.00,,---,0.00,VWS V14.01,2013-03-27 00:06:00,
2013-03-26 20:07:00,33.6,25.2,30.06,NNE,22,2.5,2.5,71,0.00,,---,0.00,VWS V14.01,2013-03-27 00:07:00,
2013-03-26 20:08:00,33.6,25.2,30.06,NNE,22,2.5,2.5,71,0.00,,---,0.00,VWS V14.01,2013-03-27 00:08:00,
2013-03-26 20:09:00,33.8,24.7,30.00,NNE,22,2.5,2.5,69,0.00,,---,0.00,VWS V14.01,2013-03-27 00:09:00,
2013-03-26 20:12:00,33.6,25.2,30.06,NNE,22,2.5,2.5,71,0.00,,---,0.00,VWS V14.01,2013-03-27 00:12:00,
2013-03-26 20:13:00,33.4,25.1,30.06,NNE,22,2.5,2.5,71,0.00,,---,0.00,VWS V14.01,2013-03-27 00:13:00,
2013-03-26 20:14:00,33.8,24.7,30.03,NNE,22,2.5,2.5,69,0.00,,---,0.00,VWS V14.01,2013-03-27 00:14:00,
2013-03-26 20:15:00,33.4,25.1,30.06,NNE,22,2.5,2.5,71,0.00,,---,0.00,VWS V14.01,2013-03-27 00:15:00,
2013-03-26 20:16:00,33.4,25.1,30.06,NNE,22,2.5,2.5,71,0.00,,---,0.00,VWS V14.01,2013-03-27 00:16:00,
2013-03-26 20:17:00,33.4,25.1,30.06,NNE,22,2.5,2.5,71,0.00,,---,0.00,VWS V14.01,2013-03-27 00:17:00,
2013-03-26 20:18:00,33.4,25.1,30.06,NNE,22,2.5,2.5,71,0.00,,---,0.00,VWS V14.01,2013-03-27 00:18:00,
2013-03-26 20:19:00,33.8,24.7,30.03,NNE,22,2.5,2.5,69,0.00,,---,0.00,VWS V14.01,2013-03-27 00:19:00,
2013-03-26 20:20:00,33.4,25.1,30.06,NNE,22,2.5,2.5,71,0.00,,---,0.00,VWS V14.01,2013-03-27 00:20:00,
2013-03-26 20:21:00,33.4,25.1,30.06,NNE,22,2.5,2.5,71,0.00,,---,0.00,VWS V14.01,2013-03-27 00:21:00,
2013-03-26 20:22:00,33.4,25.1,30.06,NNE,22,2.5,2.5,71,0.00,,---,0.00,VWS V14.01,2013-03-27 00:22:00,
2013-03-26 20:23:00,33.4,25.1,30.06,NNE,22,2.5,2.5,71,0.00,,---,0.00,VWS V14.01,2013-03-27 00:23:00,
2013-03-26 20:24:00,33.8,24.7,30.03,NNE,22,2.5,2.5,69,0.00,,---,0.00,VWS V14.01,2013-03-27 00:24:00,
2013-03-26 20:25:00,33.4,25.1,30.06,NNE,22,2.5,2.5,71,0.00,,---,0.00,VWS V14.01,2013-03-27 00:25:00,
2013-03-26 20:26:00,33.4,25.1,30.06,NNE,22,2.5,2.5,71,0.00,,---,0.00,VWS V14.01,2013-03-27 00:26:00,
2013-03-26 20:27:00,33.4,25.1,30.06,NNE,22,2.5,2.5,71,0.00,,---,0.00,VWS V14.01,2013-03-27 00:27:00,
2013-03-26 20:28:00,33.4,25.1,30.06,NNE,22,2.5,2.5,71,0.00,,---,0.00,VWS V14.01,2013-03-27 00:28:00,
2013-03-26 20:29:00,33.8,24.7,30.03,NNE,22,2.5,2.5,69,0.00,,---,0.00,VWS V14.01,2013-03-27 00:29:00,
2013-03-26 20:30:00,33.4,25.1,30.06,NNE,22,2.5,2.5,71,0.00,,---,0.00,VWS V14.01,2013-03-27 00:30:00,
2013-03-26 20:31:00,33.4,25.1,30.06,NNE,22,2.5,2.5,71,0.00,,---,0.00,VWS V14.01,2013-03-27 00:31:00,
2013-03-26 20:32:00,33.3,24.9,30.06,NNE,22,2.5,2.5,71,0.00,,---,0.00,VWS V14.01,2013-03-27 00:32:00,
2013-03-26 20:33:00,33.4,25.1,30.06,NNE,22,2.5,2.5,71,0.00,,---,0.00,VWS V14.01,2013-03-27 00:33:00,
2013-03-26 20:34:00,33.8,25.1,30.03,NNE,22,2.5,2.5,70,0.00,,---,0.00,VWS V14.01,2013-03-27 00:34:00,
2013-03-26 20:35:00,33.3,25.2,30.06,NNE,22,2.5,2.5,72,0.00,,---,0.00,VWS V14.01,2013-03-27 00:35:00,
2013-03-26 20:36:00,33.3,25.2,30.06,NNE,22,2.5,2.5,72,0.00,,---,0.00,VWS V14.01,2013-03-27 00:36:00,
2013-03-26 20:37:00,33.3,25.2,30.06,NNE,22,2.5,2.5,72,0.00,,---,0.00,VWS V14.01,2013-03-27 00:37:00,
2013-03-26 20:38:00,33.3,25.2,30.06,NNE,22,2.5,2.5,72,0.00,,---,0.00,VWS V14.01,2013-03-27 00:38:00,
2013-03-26 20:39:00,33.8,25.1,30.03,NNE,22,2.5,2.5,70,0.00,,---,0.00,VWS V14.01,2013-03-27 00:39:00,
2013-03-26 20:40:00,33.3,25.2,30.06,NNE,22,2.5,2.5,72,0.00,,---,0.00,VWS V14.01,2013-03-27 00:40:00,
2013-03-26 20:41:00,33.3,25.2,30.06,NNE,22,2.5,2.5,72,0.00,,---,0.00,VWS V14.01,2013-03-27 00:41:00,
2013-03-26 20:42:00,33.3,25.2,30.06,NNE,22,2.5,2.5,72,0.00,,---,0.00,VWS V14.01,2013-03-27 00:42:00,
2013-03-26 20:43:00,33.3,25.2,30.06,NNE,22,2.5,2.5,72,0.00,,---,0.00,VWS V14.01,2013-03-27 00:43:00,
2013-03-26 20:44:00,33.8,25.1,30.06,NNE,22,2.5,2.5,70,0.00,,---,0.00,VWS V14.01,2013-03-27 00:44:00,
2013-03-26 20:45:00,33.3,25.2,30.06,NNE,22,2.5,2.5,72,0.00,,---,0.00,VWS V14.01,2013-03-27 00:45:00,
2013-03-26 20:46:00,33.3,25.2,30.06,NNE,22,2.5,2.5,72,0.00,,---,0.00,VWS V14.01,2013-03-27 00:46:00,
2013-03-26 20:47:00,33.3,25.2,30.06,NNE,22,2.5,2.5,72,0.00,,---,0.00,VWS V14.01,2013-03-27 00:47:00,
2013-03-26 20:48:00,33.3,25.2,30.06,NNE,22,2.5,2.5,72,0.00,,---,0.00,VWS V14.01,2013-03-27 00:48:00,
2013-03-26 20:49:00,33.8,25.1,30.06,NNE,22,2.5,2.5,70,0.00,,---,0.00,VWS V14.01,2013-03-27 00:49:00,
2013-03-26 20:50:00,33.3,25.2,30.06,NNE,22,2.5,2.5,72,0.00,,---,0.00,VWS V14.01,2013-03-27 00:50:00,
2013-03-26 20:51:00,33.3,25.2,30.06,NNE,22,2.5,2.5,72,0.00,,---,0.00,VWS V14.01,2013-03-27 00:51:00,
2013-03-26 20:52:00,33.3,25.6,30.06,NNE,22,2.5,2.5,73,0.00,,---,0.00,VWS V14.01,2013-03-27 00:52:00,
2013-03-26 20:53:00,33.3,25.6,30.06,NNE,22,2.5,2.5,73,0.00,,---,0.00,VWS V14.01,2013-03-27 00:53:00,
2013-03-26 20:54:00,33.8,25.1,30.06,NNE,22,2.5,2.5,70,0.00,,---,0.00,VWS V14.01,2013-03-27 00:54:00,
2013-03-26 20:55:00,33.3,25.6,30.06,NNE,22,2.5,2.5,73,0.00,,---,0.00,VWS V14.01,2013-03-27 00:55:00,
2013-03-26 20:57:00,33.3,25.6,30.06,NNE,22,2.5,2.5,73,0.00,,---,0.00,VWS V14.01,2013-03-27 00:57:00,
2013-03-26 20:58:00,33.3,25.6,30.06,NNE,22,2.5,2.5,73,0.00,,---,0.00,VWS V14.01,2013-03-27 00:58:00,
2013-03-26 20:59:00,33.6,25.2,30.06,NNE,22,2.5,2.5,71,0.00,,---,0.00,VWS V14.01,2013-03-27 00:59:00,
2013-03-26 21:00:00,33.3,25.6,30.06,NNE,22,2.5,2.5,73,0.00,,---,0.00,VWS V14.01,2013-03-27 01:00:00,
2013-03-26 21:01:00,33.3,25.6,30.06,NNE,22,2.5,2.5,73,0.00,,---,0.00,VWS V14.01,2013-03-27 01:01:00,
2013-03-26 21:02:00,33.3,25.6,30.06,NNE,22,2.5,2.5,73,0.00,,---,0.00,VWS V14.01,2013-03-27 01:02:00,
2013-03-26 21:03:00,33.3,25.6,30.06,NNE,22,2.5,2.5,73,0.00,,---,0.00,VWS V14.01,2013-03-27 01:03:00,
2013-03-26 21:04:00,33.6,25.2,30.06,NNE,22,2.5,2.5,71,0.00,,---,0.00,VWS V14.01,2013-03-27 01:04:00,
2013-03-26 21:05:00,33.3,25.6,30.06,NNE,22,2.5,2.5,73,0.00,,---,0.00,VWS V14.01,2013-03-27 01:05:00,
2013-03-26 21:06:00,33.3,25.6,30.06,NNE,22,2.5,2.5,73,0.00,,---,0.00,VWS V14.01,2013-03-27 01:06:00,
2013-03-26 21:07:00,33.3,25.6,30.06,NNE,22,2.5,2.5,73,0.00,,---,0.00,VWS V14.01,2013-03-27 01:07:00,
2013-03-26 21:08:00,33.3,25.6,30.06,NNE,22,2.5,2.5,73,0.00,,---,0.00,VWS V14.01,2013-03-27 01:08:00,
2013-03-26 21:09:00,33.4,25.1,30.06,NNE,22,2.5,2.5,71,0.00,,---,0.00,VWS V14.01,2013-03-27 01:09:00,
2013-03-26 21:10:00,33.3,25.6,30.06,NNE,22,2.5,2.5,73,0.00,,---,0.00,VWS V14.01,2013-03-27 01:10:00,
2013-03-26 21:11:00,33.3,25.6,30.06,NNE,22,2.5,2.5,73,0.00,,---,0.00,VWS V14.01,2013-03-27 01:11:00,
2013-03-26 21:12:00,33.3,25.6,30.06,NNE,22,2.5,2.5,73,0.00,,---,0.00,VWS V14.01,2013-03-27 01:12:00,
2013-03-26 21:13:00,33.3,25.6,30.06,NNE,22,2.5,2.5,73,0.00,,---,0.00,VWS V14.01,2013-03-27 01:13:00,
2013-03-26 21:14:00,33.4,25.1,30.06,NNE,22,2.5,2.5,71,0.00,,---,0.00,VWS V14.01,2013-03-27 01:14:00,
2013-03-26 21:15:00,33.3,25.6,30.06,NNE,22,2.5,2.5,73,0.00,,---,0.00,VWS V14.01,2013-03-27 01:15:00,
2013-03-26 21:16:00,33.3,25.6,30.06,NNE,22,2.5,2.5,73,0.00,,---,0.00,VWS V14.01,2013-03-27 01:16:00,
2013-03-26 21:17:00,33.3,25.6,30.06,NNE,22,2.5,2.5,73,0.00,,---,0.00,VWS V14.01,2013-03-27 01:17:00,
2013-03-26 21:18:00,33.3,25.6,30.06,NNE,22,2.5,2.5,73,0.00,,---,0.00,VWS V14.01,2013-03-27 01:18:00,
2013-03-26 21:19:00,33.4,25.1,30.06,NNE,22,2.5,2.5,71,0.00,,---,0.00,VWS V14.01,2013-03-27 01:19:00,
2013-03-26 21:20:00,33.3,25.2,30.06,NNE,22,2.5,2.5,72,0.00,,---,0.00,VWS V14.01,2013-03-27 01:20:00,
2013-03-26 21:21:00,33.3,25.6,30.06,NNE,22,2.5,2.5,73,0.00,,---,0.00,VWS V14.01,2013-03-27 01:21:00,
2013-03-26 21:22:00,33.1,25.4,30.06,NNE,22,2.5,2.5,73,0.00,,---,0.00,VWS V14.01,2013-03-27 01:22:00,
2013-03-26 21:23:00,33.1,25.4,30.06,NNE,22,2.5,2.5,73,0.00,,---,0.00,VWS V14.01,2013-03-27 01:23:00,
2013-03-26 21:24:00,33.4,25.1,30.06,NNE,22,2.5,2.5,71,0.00,,---,0.00,VWS V14.01,2013-03-27 01:24:00,
2013-03-26 21:25:00,33.1,25.4,30.06,NNE,22,2.5,2.5,73,0.00,,---,0.00,VWS V14.01,2013-03-27 01:25:00,
2013-03-26 21:26:00,33.1,25.4,30.06,NNE,22,2.5,2.5,73,0.00,,---,0.00,VWS V14.01,2013-03-27 01:26:00,
2013-03-26 21:27:00,33.1,25.4,30.06,NNE,22,2.5,2.5,73,0.00,,---,0.00,VWS V14.01,2013-03-27 01:27:00,
2013-03-26 21:28:00,33.1,25.4,30.06,NNE,22,2.5,2.5,73,0.00,,---,0.00,VWS V14.01,2013-03-27 01:28:00,
2013-03-26 21:29:00,33.3,25.2,30.06,NNE,22,2.5,2.5,72,0.00,,---,0.00,VWS V14.01,2013-03-27 01:29:00,
2013-03-26 21:30:00,33.1,25.4,30.06,NNE,22,2.5,2.5,73,0.00,,---,0.00,VWS V14.01,2013-03-27 01:30:00,
2013-03-26 21:31:00,33.1,25.4,30.06,NNE,22,2.5,2.5,73,0.00,,---,0.00,VWS V14.01,2013-03-27 01:31:00,
2013-03-26 21:32:00,33.3,25.6,30.06,NNE,22,2.5,2.5,73,0.00,,---,0.00,VWS V14.01,2013-03-27 01:32:00,
2013-03-26 21:33:00,33.3,25.6,30.06,NNE,22,2.5,2.5,73,0.00,,---,0.00,VWS V14.01,2013-03-27 01:33:00,
2013-03-26 21:34:00,33.3,25.2,30.06,NNE,22,2.5,2.5,72,0.00,,---,0.00,VWS V14.01,2013-03-27 01:34:00,
2013-03-26 21:35:00,33.3,25.6,30.06,NNE,22,2.5,2.5,73,0.00,,---,0.00,VWS V14.01,2013-03-27 01:35:00,
2013-03-26 21:36:00,33.3,25.6,30.03,NNE,22,2.5,2.5,73,0.00,,---,0.00,VWS V14.01,2013-03-27 01:36:00,
2013-03-26 21:37:00,33.3,25.6,30.03,NNE,22,2.5,2.5,73,0.00,,---,0.00,VWS V14.01,2013-03-27 01:37:00,
2013-03-26 21:38:00,33.3,25.6,30.03,NNE,22,2.5,2.5,73,0.00,,---,0.00,VWS V14.01,2013-03-27 01:38:00,
2013-03-26 21:39:00,33.3,25.2,30.06,NNE,22,2.5,2.5,72,0.00,,---,0.00,VWS V14.01,2013-03-27 01:39:00,
2013-03-26 21:40:00,33.3,25.6,30.03,NNE,22,2.5,2.5,73,0.00,,---,0.00,VWS V14.01,2013-03-27 01:40:00,
2013-03-26 21:41:00,33.3,25.6,30.03,NNE,22,2.5,2.5,73,0.00,,---,0.00,VWS V14.01,2013-03-27 01:41:00,
2013-03-26 21:42:00,33.3,25.6,30.03,NNE,22,2.5,2.5,73,0.00,,---,0.00,VWS V14.01,2013-03-27 01:42:00,
2013-03-26 21:43:00,33.3,25.6,30.03,NNE,22,2.5,2.5,73,0.00,,---,0.00,VWS V14.01,2013-03-27 01:43:00,
2013-03-26 21:44:00,33.3,25.2,30.06,NNE,22,2.5,2.5,72,0.00,,---,0.00,VWS V14.01,2013-03-27 01:44:00,
2013-03-26 21:45:00,33.3,25.6,30.03,NNE,22,2.5,2.5,73,0.00,,---,0.00,VWS V14.01,2013-03-27 01:45:00,
2013-03-26 21:46:00,33.3,25.6,30.03,NNE,22,2.5,2.5,73,0.00,,---,0.00,VWS V14.01,2013-03-27 01:46:00,
2013-03-26 21:47:00,33.1,25.4,30.03,NNE,22,2.5,2.5,73,0.00,,---,0.00,VWS V14.01,2013-03-27 01:47:00,
2013-03-26 21:48:00,33.1,25.4,30.03,NNE,22,2.5,2.5,73,0.00,,---,0.00,VWS V14.01,2013-03-27 01:48:00,
2013-03-26 21:49:00,33.3,25.6,30.06,NNE,22,2.5,2.5,73,0.00,,---,0.00,VWS V14.01,2013-03-27 01:49:00,
2013-03-26 21:50:00,33.3,25.6,30.03,NNE,22,2.5,2.5,73,0.00,,---,0.00,VWS V14.01,2013-03-27 01:50:00,
2013-03-26 21:51:00,33.3,25.6,30.03,NNE,22,2.5,2.5,73,0.00,,---,0.00,VWS V14.01,2013-03-27 01:51:00,
2013-03-26 21:52:00,33.3,25.6,30.03,NNE,22,2.5,2.5,73,0.00,,---,0.00,VWS V14.01,2013-03-27 01:52:00,
2013-03-26 21:53:00,33.3,25.6,30.03,NNE,22,2.5,2.5,73,0.00,,---,0.00,VWS V14.01,2013-03-27 01:53:00,
2013-03-26 21:54:00,33.3,25.6,30.06,NNE,22,2.5,2.5,73,0.00,,---,0.00,VWS V14.01,2013-03-27 01:54:00,
2013-03-26 21:55:00,33.3,25.6,30.03,NNE,22,2.5,2.5,73,0.00,,---,0.00,VWS V14.01,2013-03-27 01:55:00,
2013-03-26 21:56:00,33.3,25.6,30.03,NNE,22,2.5,2.5,73,0.00,,---,0.00,VWS V14.01,2013-03-27 01:56:00,
2013-03-26 21:57:00,33.3,25.6,30.03,NNE,22,2.5,2.5,73,0.00,,---,0.00,VWS V14.01,2013-03-27 01:57:00,
2013-03-26 21:58:00,33.3,25.6,30.03,NNE,22,2.5,2.5,73,0.00,,---,0.00,VWS V14.01,2013-03-27 01:58:00,
2013-03-26 21:59:00,33.3,25.6,30.06,NNE,22,2.5,2.5,73,0.00,,---,0.00,VWS V14.01,2013-03-27 01:59:00,
2013-03-26 22:00:00,33.1,25.4,30.03,NNE,22,2.5,2.5,73,0.00,,---,0.00,VWS V14.01,2013-03-27 02:00:00,
2013-03-26 22:01:00,33.1,25.4,30.03,NNE,22,2.5,2.5,73,0.00,,---,0.00,VWS V14.01,2013-03-27 02:01:00,
2013-03-26 22:02:00,33.1,25.4,30.03,NNE,22,2.5,2.5,73,0.00,,---,0.00,VWS V14.01,2013-03-27 02:02:00,
2013-03-26 22:03:00,33.1,25.4,30.03,NNE,22,2.5,2.5,73,0.00,,---,0.00,VWS V14.01,2013-03-27 02:03:00,
2013-03-26 22:04:00,33.3,25.6,30.06,NNE,22,2.5,2.5,73,0.00,,---,0.00,VWS V14.01,2013-03-27 02:04:00,
2013-03-26 22:05:00,33.1,25.7,30.06,NNE,22,2.5,2.5,74,0.00,,---,0.00,VWS V14.01,2013-03-27 02:05:00,
2013-03-26 22:06:00,33.1,25.7,30.06,NNE,22,2.5,2.5,74,0.00,,---,0.00,VWS V14.01,2013-03-27 02:06:00,
2013-03-26 22:07:00,33.1,25.4,30.06,NNE,22,2.5,2.5,73,0.00,,---,0.00,VWS V14.01,2013-03-27 02:07:00,
2013-03-26 22:08:00,33.1,25.7,30.06,NNE,22,2.5,2.5,74,0.00,,---,0.00,VWS V14.01,2013-03-27 02:08:00,
2013-03-26 22:09:00,33.3,25.6,30.06,NNE,22,2.5,2.5,73,0.00,,---,0.00,VWS V14.01,2013-03-27 02:09:00,
2013-03-26 22:10:00,33.1,25.7,30.06,NNE,22,2.5,2.5,74,0.00,,---,0.00,VWS V14.01,2013-03-27 02:10:00,
2013-03-26 22:11:00,33.1,25.7,30.06,NNE,22,2.5,2.5,74,0.00,,---,0.00,VWS V14.01,2013-03-27 02:11:00,
2013-03-26 22:12:00,33.1,25.7,30.06,NNE,22,2.5,2.5,74,0.00,,---,0.00,VWS V14.01,2013-03-27 02:12:00,
2013-03-26 22:13:00,33.1,25.7,30.06,NNE,22,2.5,2.5,74,0.00,,---,0.00,VWS V14.01,2013-03-27 02:13:00,
2013-03-26 22:14:00,33.3,25.2,30.06,NNE,22,2.5,2.5,72,0.00,,---,0.00,VWS V14.01,2013-03-27 02:14:00,
2013-03-26 22:17:00,33.1,25.7,30.06,NNE,22,2.5,2.5,74,0.00,,---,0.00,VWS V14.01,2013-03-27 02:17:00,
2013-03-26 22:18:00,33.1,25.7,30.06,NNE,22,2.5,2.5,74,0.00,,---,0.00,VWS V14.01,2013-03-27 02:18:00,
2013-03-26 22:19:00,33.1,25.4,30.06,NNE,22,2.5,2.5,73,0.00,,---,0.00,VWS V14.01,2013-03-27 02:19:00,
2013-03-26 22:20:00,33.1,25.7,30.06,NNE,22,2.5,2.5,74,0.00,,---,0.00,VWS V14.01,2013-03-27 02:20:00,
2013-03-26 22:21:00,33.1,25.7,30.06,NNE,22,2.5,2.5,74,0.00,,---,0.00,VWS V14.01,2013-03-27 02:21:00,
2013-03-26 22:22:00,32.9,25.5,30.06,NNE,22,2.5,2.5,74,0.00,,---,0.00,VWS V14.01,2013-03-27 02:22:00,
2013-03-26 22:23:00,32.9,25.5,30.06,NNE,22,2.5,2.5,74,0.00,,---,0.00,VWS V14.01,2013-03-27 02:23:00,
2013-03-26 22:24:00,33.1,25.4,30.06,NNE,22,2.5,2.5,73,0.00,,---,0.00,VWS V14.01,2013-03-27 02:24:00,
2013-03-26 22:25:00,32.9,25.5,30.06,NNE,22,2.5,2.5,74,0.00,,---,0.00,VWS V14.01,2013-03-27 02:25:00,
2013-03-26 22:26:00,32.9,25.5,30.06,NNE,22,2.5,2.5,74,0.00,,---,0.00,VWS V14.01,2013-03-27 02:26:00,
2013-03-26 22:27:00,32.9,25.5,30.06,NNE,22,2.5,2.5,74,0.00,,---,0.00,VWS V14.01,2013-03-27 02:27:00,
2013-03-26 22:28:00,32.9,25.5,30.06,NNE,22,2.5,2.5,74,0.00,,---,0.00,VWS V14.01,2013-03-27 02:28:00,
2013-03-26 22:29:00,33.3,25.6,30.03,NNE,22,2.5,2.5,73,0.00,,---,0.00,VWS V14.01,2013-03-27 02:29:00,
2013-03-26 22:30:00,32.9,25.5,30.06,NNE,22,2.5,2.5,74,0.00,,---,0.00,VWS V14.01,2013-03-27 02:30:00,
2013-03-26 22:31:00,32.9,25.5,30.06,NNE,22,2.5,2.5,74,0.00,,---,0.00,VWS V14.01,2013-03-27 02:31:00,
2013-03-26 22:32:00,32.9,25.5,30.06,NNE,22,2.5,2.5,74,0.00,,---,0.00,VWS V14.01,2013-03-27 02:32:00,
2013-03-26 22:33:00,32.9,25.5,30.06,NNE,22,2.5,2.5,74,0.00,,---,0.00,VWS V14.01,2013-03-27 02:33:00,
2013-03-26 22:34:00,33.3,25.6,30.03,NNE,22,2.5,2.5,73,0.00,,---,0.00,VWS V14.01,2013-03-27 02:34:00,
2013-03-26 22:35:00,32.9,25.5,30.06,NNE,22,2.5,2.5,74,0.00,,---,0.00,VWS V14.01,2013-03-27 02:35:00,
2013-03-26 22:36:00,32.9,25.5,30.06,NNE,22,2.5,2.5,74,0.00,,---,0.00,VWS V14.01,2013-03-27 02:36:00,
2013-03-26 22:37:00,32.9,25.5,30.06,NNE,22,2.5,2.5,74,0.00,,---,0.00,VWS V14.01,2013-03-27 02:37:00,
2013-03-26 22:38:00,32.9,25.5,30.06,NNE,22,2.5,2.5,74,0.00,,---,0.00,VWS V14.01,2013-03-27 02:38:00,
2013-03-26 22:39:00,33.3,25.6,30.03,NNE,22,2.5,2.5,73,0.00,,---,0.00,VWS V14.01,2013-03-27 02:39:00,
2013-03-26 22:40:00,32.7,25.4,30.06,NNE,22,2.5,2.5,74,0.00,,---,0.00,VWS V14.01,2013-03-27 02:40:00,
2013-03-26 22:41:00,32.7,25.4,30.06,NNE,22,2.5,2.5,74,0.00,,---,0.00,VWS V14.01,2013-03-27 02:41:00,
2013-03-26 22:42:00,32.7,25.4,30.06,NNE,22,2.5,2.5,74,0.00,,---,0.00,VWS V14.01,2013-03-27 02:42:00,
2013-03-26 22:43:00,32.7,25.4,30.06,NNE,22,2.5,2.5,74,0.00,,---,0.00,VWS V14.01,2013-03-27 02:43:00,
2013-03-26 22:44:00,33.3,25.6,30.03,NNE,22,2.5,2.5,73,0.00,,---,0.00,VWS V14.01,2013-03-27 02:44:00,
2013-03-26 22:45:00,32.7,25.0,30.06,NNE,22,2.5,2.5,73,0.00,,---,0.00,VWS V14.01,2013-03-27 02:45:00,
2013-03-26 22:46:00,32.7,25.0,30.06,NNE,22,2.5,2.5,73,0.00,,---,0.00,VWS V14.01,2013-03-27 02:46:00,
2013-03-26 22:47:00,32.7,25.0,30.06,NNE,22,2.5,2.5,73,0.00,,---,0.00,VWS V14.01,2013-03-27 02:47:00,
2013-03-26 22:48:00,32.7,25.0,30.06,NNE,22,2.5,2.5,73,0.00,,---,0.00,VWS V14.01,2013-03-27 02:48:00,
2013-03-26 22:49:00,33.3,25.6,30.03,NNE,22,2.5,2.5,73,0.00,,---,0.00,VWS V14.01,2013-03-27 02:49:00,
2013-03-26 22:50:00,32.7,25.0,30.06,NNE,22,2.5,2.5,73,0.00,,---,0.00,VWS V14.01,2013-03-27 02:50:00,
2013-03-26 22:51:00,32.7,25.0,30.06,NNE,22,2.5,2.5,73,0.00,,---,0.00,VWS V14.01,2013-03-27 02:51:00,
2013-03-26 22:52:00,32.7,25.0,30.06,NNE,22,2.5,2.5,73,0.00,,---,0.00,VWS V14.01,2013-03-27 02:52:00,
2013-03-26 22:53:00,32.5,24.9,30.06,NNE,22,2.5,2.5,73,0.00,,---,0.00,VWS V14.01,2013-03-27 02:53:00,
2013-03-26 22:54:00,32.5,24.9,30.06,NNE,22,2.5,2.5,73,0.00,,---,0.00,VWS V14.01,2013-03-27 02:54:00,
2013-03-26 22:55:00,33.1,25.4,30.03,NNE,22,2.5,2.5,73,0.00,,---,0.00,VWS V14.01,2013-03-27 02:55:00,
2013-03-26 22:56:00,32.5,24.9,30.06,NNE,22,2.5,2.5,73,0.00,,---,0.00,VWS V14.01,2013-03-27 02:56:00,
2013-03-26 22:57:00,32.5,24.9,30.06,NNE,22,2.5,2.5,73,0.00,,---,0.00,VWS V14.01,2013-03-27 02:57:00,
2013-03-26 22:58:00,32.5,24.9,30.06,NNE,22,2.5,2.5,73,0.00,,---,0.00,VWS V14.01,2013-03-27 02:58:00,
2013-03-26 22:59:00,32.5,24.5,30.06,NNE,22,2.5,2.5,72,0.00,,---,0.00,VWS V14.01,2013-03-27 02:59:00,
2013-03-26 23:00:00,33.1,25.7,30.06,NNE,22,2.5,2.5,74,0.00,,---,0.00,VWS V14.01,2013-03-27 03:00:00,
2013-03-26 23:01:00,32.5,24.5,30.06,NNE,22,2.5,2.5,72,0.00,,---,0.00,VWS V14.01,2013-03-27 03:01:00,
2013-03-26 23:02:00,32.5,24.5,30.06,NNE,22,2.5,2.5,72,0.00,,---,0.00,VWS V14.01,2013-03-27 03:02:00,
2013-03-26 23:03:00,32.5,24.5,30.06,NNE,22,2.5,2.5,72,0.00,,---,0.00,VWS V14.01,2013-03-27 03:03:00,
2013-03-26 23:04:00,32.5,24.2,30.06,NNE,22,2.5,2.5,71,0.00,,---,0.00,VWS V14.01,2013-03-27 03:04:00,
2013-03-26 23:05:00,33.1,25.7,30.06,NNE,22,2.5,2.5,74,0.00,,---,0.00,VWS V14.01,2013-03-27 03:05:00,
2013-03-26 23:06:00,32.5,24.2,30.06,NNE,22,2.5,2.5,71,0.00,,---,0.00,VWS V14.01,2013-03-27 03:06:00,
2013-03-26 23:07:00,32.5,24.2,30.06,NNE,22,2.5,2.5,71,0.00,,---,0.00,VWS V14.01,2013-03-27 03:07:00,
2013-03-26 23:08:00,32.5,24.2,30.06,NNE,22,2.5,2.5,71,0.00,,---,0.00,VWS V14.01,2013-03-27 03:08:00,
2013-03-26 23:09:00,32.4,23.7,30.06,NNE,22,2.5,2.5,70,0.00,,---,0.00,VWS V14.01,2013-03-27 03:09:00,
2013-03-26 23:10:00,33.1,25.7,30.06,NNE,22,2.5,2.5,74,0.00,,---,0.00,VWS V14.01,2013-03-27 03:10:00,
2013-03-26 23:11:00,32.4,23.7,30.06,NNE,22,2.5,2.5,70,0.00,,---,0.00,VWS V14.01,2013-03-27 03:11:00,
2013-03-26 23:12:00,32.4,23.7,30.06,NNE,22,2.5,2.5,70,0.00,,---,0.00,VWS V14.01,2013-03-27 03:12:00,
2013-03-26 23:13:00,32.2,23.5,30.06,NNE,22,2.5,2.5,70,0.00,,---,0.00,VWS V14.01,2013-03-27 03:13:00,
2013-03-26 23:14:00,32.2,23.5,30.06,NNE,22,2.5,2.5,70,0.00,,---,0.00,VWS V14.01,2013-03-27 03:14:00,
2013-03-26 23:15:00,33.1,25.7,30.06,NNE,22,2.5,2.5,74,0.00,,---,0.00,VWS V14.01,2013-03-27 03:15:00,
2013-03-26 23:16:00,32.2,23.5,30.06,NNE,22,2.5,2.5,70,0.00,,---,0.00,VWS V14.01,2013-03-27 03:16:00,
2013-03-26 23:17:00,32.2,23.5,30.06,NNE,22,2.5,2.5,70,0.00,,---,0.00,VWS V14.01,2013-03-27 03:17:00,
2013-03-26 23:18:00,32.2,23.5,30.06,NNE,22,2.5,2.5,70,0.00,,---,0.00,VWS V14.01,2013-03-27 03:18:00,
2013-03-26 23:19:00,32.2,23.5,30.06,NNE,22,2.5,2.5,70,0.00,,---,0.00,VWS V14.01,2013-03-27 03:19:00,
2013-03-26 23:20:00,32.9,25.5,30.06,NNE,22,2.5,2.5,74,0.00,,---,0.00,VWS V14.01,2013-03-27 03:20:00,
2013-03-26 23:21:00,32.2,23.5,30.06,NNE,22,2.5,2.5,70,0.00,,---,0.00,VWS V14.01,2013-03-27 03:21:00,
2013-03-26 23:22:00,32.0,23.3,30.06,NNE,22,2.5,2.5,70,0.00,,---,0.00,VWS V14.01,2013-03-27 03:22:00,
2013-03-26 23:24:00,32.0,23.3,30.06,NNE,22,2.5,2.5,70,0.00,,---,0.00,VWS V14.01,2013-03-27 03:24:00,
2013-03-26 23:25:00,32.9,25.5,30.06,NNE,22,2.5,2.5,74,0.00,,---,0.00,VWS V14.01,2013-03-27 03:25:00,
2013-03-26 23:26:00,32.0,23.3,30.06,NNE,22,2.5,2.5,70,0.00,,---,0.00,VWS V14.01,2013-03-27 03:26:00,
2013-03-26 23:27:00,32.0,23.3,30.06,NNE,22,2.5,2.5,70,0.00,,---,0.00,VWS V14.01,2013-03-27 03:27:00,
2013-03-26 23:28:00,32.0,23.0,30.06,NNE,22,2.5,2.5,69,0.00,,---,0.00,VWS V14.01,2013-03-27 03:28:00,
2013-03-26 23:29:00,32.0,23.0,30.06,NNE,22,2.5,2.5,69,0.00,,---,0.00,VWS V14.01,2013-03-27 03:29:00,
2013-03-26 23:30:00,32.9,25.5,30.06,NNE,22,2.5,2.5,74,0.00,,---,0.00,VWS V14.01,2013-03-27 03:30:00,
2013-03-26 23:31:00,32.0,23.0,30.06,NNE,22,2.5,2.5,69,0.00,,---,0.00,VWS V14.01,2013-03-27 03:31:00,
2013-03-26 23:32:00,32.0,23.0,30.06,NNE,22,2.5,2.5,69,0.00,,---,0.00,VWS V14.01,2013-03-27 03:32:00,
2013-03-26 23:33:00,32.0,23.0,30.06,NNE,22,2.5,2.5,69,0.00,,---,0.00,VWS V14.01,2013-03-27 03:33:00,
2013-03-26 23:34:00,32.0,23.0,30.06,NNE,22,2.5,2.5,69,0.00,,---,0.00,VWS V14.01,2013-03-27 03:34:00,
2013-03-26 23:35:00,32.7,25.4,30.06,NNE,22,2.5,2.5,74,0.00,,---,0.00,VWS V14.01,2013-03-27 03:35:00,
2013-03-26 23:36:00,32.0,23.0,30.03,NNE,22,2.5,2.5,69,0.00,,---,0.00,VWS V14.01,2013-03-27 03:36:00,
2013-03-26 23:37:00,32.0,23.0,30.03,NNE,22,2.5,2.5,69,0.00,,---,0.00,VWS V14.01,2013-03-27 03:37:00,
2013-03-26 23:38:00,32.0,23.0,30.03,NNE,22,2.5,2.5,69,0.00,,---,0.00,VWS V14.01,2013-03-27 03:38:00,
2013-03-26 23:39:00,32.0,23.0,30.03,NNE,22,2.5,2.5,69,0.00,,---,0.00,VWS V14.01,2013-03-27 03:39:00,
2013-03-26 23:40:00,32.7,25.0,30.06,NNE,22,2.5,2.5,73,0.00,,---,0.00,VWS V14.01,2013-03-27 03:40:00,
2013-03-26 23:41:00,32.0,23.0,30.03,NNE,22,2.5,2.5,69,0.00,,---,0.00,VWS V14.01,2013-03-27 03:41:00,
2013-03-26 23:42:00,32.0,23.0,30.03,NNE,22,2.5,2.5,69,0.00,,---,0.00,VWS V14.01,2013-03-27 03:42:00,
2013-03-26 23:43:00,32.0,23.0,30.03,NNE,22,2.5,2.5,69,0.00,,---,0.00,VWS V14.01,2013-03-27 03:43:00,
2013-03-26 23:44:00,32.0,23.0,30.03,NNE,22,2.5,2.5,69,0.00,,---,0.00,VWS V14.01,2013-03-27 03:44:00,
2013-03-26 23:45:00,32.7,25.0,30.06,NNE,22,2.5,2.5,73,0.00,,---,0.00,VWS V14.01,2013-03-27 03:45:00,
2013-03-26 23:46:00,31.8,22.8,30.03,NNE,22,2.5,2.5,69,0.00,,---,0.00,VWS V14.01,2013-03-27 03:46:00,
2013-03-26 23:47:00,31.8,22.8,30.03,NNE,22,2.5,2.5,69,0.00,,---,0.00,VWS V14.01,2013-03-27 03:47:00,
2013-03-26 23:48:00,31.8,22.8,30.03,NNE,22,2.5,2.5,69,0.00,,---,0.00,VWS V14.01,2013-03-27 03:48:00,
2013-03-26 23:49:00,31.8,22.8,30.03,NNE,22,2.5,2.5,69,0.00,,---,0.00,VWS V14.01,2013-03-27 03:49:00,
2013-03-26 23:50:00,32.5,24.9,30.06,NNE,22,2.5,2.5,73,0.00,,---,0.00,VWS V14.01,2013-03-27 03:50:00,
2013-03-26 23:51:00,31.6,22.6,30.06,NNE,22,2.5,2.5,69,0.00,,---,0.00,VWS V14.01,2013-03-27 03:51:00,
2013-03-26 23:52:00,31.6,22.6,30.06,NNE,22,2.5,2.5,69,0.00,,---,0.00,VWS V14.01,2013-03-27 03:52:00,
2013-03-26 23:53:00,31.6,22.6,30.06,NNE,22,2.5,2.5,69,0.00,,---,0.00,VWS V14.01,2013-03-27 03:53:00,
2013-03-26 23:54:00,31.6,22.6,30.06,NNE,22,2.5,2.5,69,0.00,,---,0.00,VWS V14.01,2013-03-27 03:54:00,
2013-03-26 23:55:00,32.5,24.5,30.06,NNE,22,2.5,2.5,72,0.00,,---,0.00,VWS V14.01,2013-03-27 03:55:00,
2013-03-26 23:56:00,31.6,22.6,30.06,NNE,22,2.5,2.5,69,0.00,,---,0.00,VWS V14.01,2013-03-27 03:56:00,
2013-03-26 23:57:00,31.8,22.8,30.06,NNE,22,2.5,2.5,69,0.00,,---,0.00,VWS V14.01,2013-03-27 03:57:00,
2013-03-26 23:58:00,31.8,22.8,30.06,NNE,22,2.5,2.5,69,0.00,,---,0.00,VWS V14.01,2013-03-27 03:58:00,
2013-03-26 23:59:00,31.8,22.8,30.06,NNE,22,2.5,2.5,69,0.00,,---,0.00,VWS V14.01,2013-03-27 03:59:00,